Wetterdaten: Mittwoch, 02.11.2016
Datum Zeit Temp. Aussen Temp. o. S. +5cm Feuchte Auss BlattFeu 1 Luftdruck Regen Sonnenschein Regendauer Solar Windben Empfang
02.11.2016 00:00 8,9 C 7,8 C 6,1 C 94 % 15 lf 1018,9 hPa 0,0 l/m 0 min 0 min 0 W/m 6,3 km/h (2 Bft) 95,74 %
02.11.2016 00:02 8,9 C 7,8 C 6,1 C 94 % 15 lf 1018,9 hPa 0,0 l/m 0 min 0 min 0 W/m 8,4 km/h (2 Bft) 94,74 %
02.11.2016 00:06 8,8 C 7,8 C 6,1 C 94 % 15 lf 1018,9 hPa 0,0 l/m 0 min 0 min 0 W/m 12,6 km/h (3 Bft) 94,74 %
02.11.2016 00:08 8,7 C 7,8 C 6,1 C 94 % 15 lf 1018,9 hPa 0,0 l/m 0 min 0 min 0 W/m 8,4 km/h (2 Bft) 95,74 %
02.11.2016 00:10 8,7 C 7,8 C 6,1 C 94 % 15 lf 1018,9 hPa 0,0 l/m 0 min 0 min 0 W/m 6,3 km/h (2 Bft) 91,49 %
02.11.2016 00:12 8,7 C 7,8 C 5,6 C 94 % 15 lf 1018,9 hPa 0,0 l/m 0 min 0 min 0 W/m 4,2 km/h (1 Bft) 95,65 %
02.11.2016 00:14 8,7 C 7,2 C 5,6 C 94 % 15 lf 1018,9 hPa 0,0 l/m 0 min 0 min 0 W/m 10,5 km/h (2 Bft) 93,62 %
02.11.2016 00:16 8,7 C 7,2 C 5,6 C 94 % 15 lf 1018,9 hPa 0,0 l/m 0 min 0 min 0 W/m 8,4 km/h (2 Bft) 93,62 %
02.11.2016 00:18 8,6 C 7,2 C 5,6 C 94 % 15 lf 1018,9 hPa 0,0 l/m 0 min 0 min 0 W/m 8,4 km/h (2 Bft) 95,74 %
02.11.2016 00:20 8,6 C 7,2 C 5,6 C 94 % 15 lf 1018,9 hPa 0,0 l/m 0 min 0 min 0 W/m 10,5 km/h (2 Bft) 95,74 %
02.11.2016 00:22 8,6 C 7,2 C 5,6 C 94 % 15 lf 1019,0 hPa 0,0 l/m 0 min 0 min 0 W/m 10,5 km/h (2 Bft) 97,87 %
02.11.2016 00:24 8,5 C 7,2 C 5,6 C 94 % 15 lf 1018,9 hPa 0,0 l/m 0 min 0 min 0 W/m 6,3 km/h (2 Bft) 95,65 %
02.11.2016 00:26 8,4 C 7,2 C 5,0 C 94 % 15 lf 1018,9 hPa 0,0 l/m 0 min 0 min 0 W/m 4,2 km/h (1 Bft) 93,62 %
02.11.2016 00:28 8,4 C 6,7 C 5,0 C 94 % 15 lf 1018,9 hPa 0,0 l/m 0 min 0 min 0 W/m 4,2 km/h (1 Bft) 95,74 %
02.11.2016 00:30 8,4 C 6,7 C 5,0 C 94 % 15 lf 1018,9 hPa 0,0 l/m 0 min 0 min 0 W/m 8,4 km/h (2 Bft) 95,74 %
02.11.2016 00:32 8,3 C 6,7 C 5,0 C 94 % 15 lf 1018,9 hPa 0,0 l/m 0 min 0 min 0 W/m 8,4 km/h (2 Bft) 95,74 %
02.11.2016 00:34 8,3 C 6,7 C 5,0 C 94 % 15 lf 1018,9 hPa 0,0 l/m 0 min 0 min 0 W/m 6,3 km/h (2 Bft) 95,74 %
02.11.2016 00:36 8,3 C 6,7 C 5,0 C 94 % 15 lf 1018,9 hPa 0,0 l/m 0 min 0 min 0 W/m 6,3 km/h (2 Bft) 95,65 %
02.11.2016 00:38 8,2 C 6,7 C 5,0 C 93 % 15 lf 1018,9 hPa 0,0 l/m 0 min 0 min 0 W/m 6,3 km/h (2 Bft) 91,49 %
02.11.2016 00:40 8,2 C 6,7 C 5,0 C 93 % 15 lf 1018,9 hPa 0,0 l/m 0 min 0 min 0 W/m 4,2 km/h (1 Bft) 93,62 %
02.11.2016 00:42 8,1 C 6,7 C 5,0 C 93 % 15 lf 1018,9 hPa 0,0 l/m 0 min 0 min 0 W/m 8,4 km/h (2 Bft) 95,74 %
02.11.2016 00:44 8,1 C 6,7 C 4,4 C 93 % 15 lf 1018,9 hPa 0,0 l/m 0 min 0 min 0 W/m 8,4 km/h (2 Bft) 95,74 %
02.11.2016 00:46 8,1 C 6,7 C 4,4 C 93 % 15 lf 1018,9 hPa 0,0 l/m 0 min 0 min 0 W/m 6,3 km/h (2 Bft) 95,74 %
02.11.2016 00:48 8,0 C 6,7 C 4,4 C 93 % 15 lf 1018,9 hPa 0,0 l/m 0 min 0 min 0 W/m 6,3 km/h (2 Bft) 93,48 %
02.11.2016 00:50 7,9 C 6,1 C 4,4 C 93 % 15 lf 1018,9 hPa 0,0 l/m 0 min 0 min 0 W/m 8,4 km/h (2 Bft) 95,74 %
02.11.2016 00:52 7,9 C 6,1 C 4,4 C 93 % 15 lf 1018,9 hPa 0,0 l/m 0 min 0 min 0 W/m 6,3 km/h (2 Bft) 95,74 %
02.11.2016 00:54 7,9 C 6,1 C 4,4 C 93 % 15 lf 1018,9 hPa 0,0 l/m 0 min 0 min 0 W/m 4,2 km/h (1 Bft) 93,62 %
02.11.2016 00:56 7,8 C 6,1 C 4,4 C 93 % 15 lf 1018,9 hPa 0,0 l/m 0 min 0 min 0 W/m 6,3 km/h (2 Bft) 95,74 %
02.11.2016 00:58 7,8 C 6,1 C 4,4 C 93 % 15 lf 1018,9 hPa 0,0 l/m 0 min 0 min 0 W/m 6,3 km/h (2 Bft) 95,65 %
02.11.2016 01:00 7,8 C 6,1 C 4,4 C 93 % 15 lf 1018,8 hPa 0,0 l/m 0 min 0 min 0 W/m 6,3 km/h (2 Bft) 95,74 %
02.11.2016 01:02 7,7 C 6,1 C 4,4 C 93 % 15 lf 1018,8 hPa 0,0 l/m 0 min 0 min 0 W/m 6,3 km/h (2 Bft) 95,74 %
02.11.2016 01:04 7,7 C 6,1 C 4,4 C 93 % 15 lf 1018,8 hPa 0,0 l/m 0 min 0 min 0 W/m 4,2 km/h (1 Bft) 93,62 %
02.11.2016 01:06 7,7 C 6,1 C 4,4 C 93 % 15 lf 1018,8 hPa 0,0 l/m 0 min 0 min 0 W/m 6,3 km/h (2 Bft) 95,74 %
02.11.2016 01:08 7,6 C 6,1 C 4,4 C 93 % 15 lf 1018,9 hPa 0,0 l/m 0 min 0 min 0 W/m 6,3 km/h (2 Bft) 95,74 %
02.11.2016 01:10 7,6 C 6,1 C 4,4 C 93 % 15 lf 1018,9 hPa 0,0 l/m 0 min 0 min 0 W/m 10,5 km/h (2 Bft) 93,48 %
02.11.2016 01:12 7,5 C 6,1 C 4,4 C 93 % 15 lf 1018,9 hPa 0,0 l/m 0 min 0 min 0 W/m 6,3 km/h (2 Bft) 97,87 %
02.11.2016 01:14 7,5 C 6,1 C 4,4 C 93 % 15 lf 1018,8 hPa 0,0 l/m 0 min 0 min 0 W/m 6,3 km/h (2 Bft) 95,74 %
02.11.2016 01:16 7,4 C 5,6 C 4,4 C 93 % 15 lf 1018,8 hPa 0,0 l/m 0 min 0 min 0 W/m 8,4 km/h (2 Bft) 95,74 %
02.11.2016 01:18 7,4 C 6,1 C 3,9 C 93 % 15 lf 1018,8 hPa 0,0 l/m 0 min 0 min 0 W/m 6,3 km/h (2 Bft) 97,87 %
02.11.2016 01:20 7,4 C 5,6 C 3,9 C 93 % 15 lf 1018,8 hPa 0,0 l/m 0 min 0 min 0 W/m 6,3 km/h (2 Bft) 97,87 %
02.11.2016 01:22 7,3 C 5,6 C 3,9 C 93 % 15 lf 1018,8 hPa 0,0 l/m 0 min 0 min 0 W/m 4,2 km/h (1 Bft) 97,83 %
02.11.2016 01:24 7,3 C 5,6 C 4,4 C 93 % 15 lf 1018,8 hPa 0,0 l/m 0 min 0 min 0 W/m 6,3 km/h (2 Bft) 95,74 %
02.11.2016 01:26 7,2 C 5,6 C 3,9 C 93 % 15 lf 1018,8 hPa 0,0 l/m 0 min 0 min 0 W/m 10,5 km/h (2 Bft) 95,74 %
02.11.2016 01:28 7,2 C 5,6 C 3,9 C 93 % 15 lf 1018,7 hPa 0,0 l/m 0 min 0 min 0 W/m 6,3 km/h (2 Bft) 95,74 %
02.11.2016 01:30 7,2 C 5,6 C 3,9 C 93 % 15 lf 1018,8 hPa 0,0 l/m 0 min 0 min 0 W/m 8,4 km/h (2 Bft) 97,87 %
02.11.2016 01:32 7,1 C 5,6 C 3,9 C 93 % 15 lf 1018,7 hPa 0,0 l/m 0 min 0 min 0 W/m 4,2 km/h (1 Bft) 97,87 %
02.11.2016 01:34 7,1 C 5,6 C 3,9 C 93 % 15 lf 1018,7 hPa 0,0 l/m 0 min 0 min 0 W/m 6,3 km/h (2 Bft) 95,65 %
02.11.2016 01:36 7,1 C 5,6 C 3,9 C 93 % 15 lf 1018,7 hPa 0,0 l/m 0 min 0 min 0 W/m 8,4 km/h (2 Bft) 95,74 %
02.11.2016 01:38 7,1 C 5,6 C 3,9 C 93 % 15 lf 1018,7 hPa 0,0 l/m 0 min 0 min 0 W/m 8,4 km/h (2 Bft) 97,87 %
02.11.2016 01:40 7,0 C 5,6 C 3,9 C 93 % 15 lf 1018,8 hPa 0,0 l/m 0 min 0 min 0 W/m 4,2 km/h (1 Bft) 97,87 %
02.11.2016 01:42 6,9 C 5,6 C 3,9 C 93 % 15 lf 1018,8 hPa 0,0 l/m 0 min 0 min 0 W/m 4,2 km/h (1 Bft) 97,87 %
02.11.2016 01:44 6,9 C 5,6 C 3,9 C 93 % 15 lf 1018,8 hPa 0,0 l/m 0 min 0 min 0 W/m 6,3 km/h (2 Bft) 97,87 %
02.11.2016 01:46 6,9 C 5,6 C 3,9 C 93 % 15 lf 1018,8 hPa 0,0 l/m 0 min 0 min 0 W/m 4,2 km/h (1 Bft) 100,00 %
02.11.2016 01:48 6,9 C 5,6 C 3,9 C 93 % 15 lf 1018,8 hPa 0,0 l/m 0 min 0 min 0 W/m 4,2 km/h (1 Bft) 97,87 %
02.11.2016 01:50 6,8 C 5,6 C 3,9 C 93 % 15 lf 1018,7 hPa 0,0 l/m 0 min 0 min 0 W/m 4,2 km/h (1 Bft) 97,87 %
02.11.2016 01:52 6,8 C 5,6 C 4,4 C 93 % 15 lf 1018,7 hPa 0,0 l/m 0 min 0 min 0 W/m 6,3 km/h (2 Bft) 100,00 %
02.11.2016 01:54 6,7 C 5,6 C 4,4 C 93 % 15 lf 1018,7 hPa 0,0 l/m 0 min 0 min 0 W/m 6,3 km/h (2 Bft) 97,87 %
02.11.2016 01:56 6,7 C 5,6 C 4,4 C 93 % 15 lf 1018,7 hPa 0,0 l/m 0 min 0 min 0 W/m 6,3 km/h (2 Bft) 100,00 %
02.11.2016 01:58 6,7 C 5,6 C 4,4 C 93 % 15 lf 1018,7 hPa 0,0 l/m 0 min 0 min 0 W/m 6,3 km/h (2 Bft) 100,00 %
02.11.2016 02:00 6,7 C 6,1 C 4,4 C 93 % 15 lf 1018,7 hPa 0,0 l/m 0 min 0 min 0 W/m 10,5 km/h (2 Bft) 100,00 %
02.11.2016 02:02 6,6 C 5,6 C 4,4 C 93 % 15 lf 1018,7 hPa 0,0 l/m 0 min 0 min 0 W/m 4,2 km/h (1 Bft) 100,00 %
02.11.2016 02:04 6,6 C 5,6 C 4,4 C 93 % 15 lf 1018,8 hPa 0,0 l/m 0 min 0 min 0 W/m 4,2 km/h (1 Bft) 100,00 %
02.11.2016 02:06 6,6 C 5,6 C 4,4 C 93 % 15 lf 1018,8 hPa 0,0 l/m 0 min 0 min 0 W/m 8,4 km/h (2 Bft) 100,00 %
02.11.2016 02:08 6,6 C 5,6 C 4,4 C 93 % 15 lf 1018,7 hPa 0,0 l/m 0 min 0 min 0 W/m 6,3 km/h (2 Bft) 100,00 %
02.11.2016 02:10 6,6 C 6,1 C 4,4 C 94 % 15 lf 1018,7 hPa 0,0 l/m 0 min 0 min 0 W/m 4,2 km/h (1 Bft) 95,74 %
02.11.2016 02:12 6,6 C 6,1 C 4,4 C 94 % 15 lf 1018,7 hPa 0,0 l/m 0 min 0 min 0 W/m 6,3 km/h (2 Bft) 100,00 %
02.11.2016 02:14 6,6 C 6,1 C 5,0 C 94 % 15 lf 1018,7 hPa 0,0 l/m 0 min 0 min 0 W/m 6,3 km/h (2 Bft) 95,74 %
02.11.2016 02:16 6,5 C 6,1 C 5,0 C 94 % 15 lf 1018,7 hPa 0,0 l/m 0 min 0 min 0 W/m 6,3 km/h (2 Bft) 100,00 %
02.11.2016 02:18 6,5 C 6,1 C 5,0 C 94 % 15 lf 1018,7 hPa 0,0 l/m 0 min 0 min 0 W/m 6,3 km/h (2 Bft) 100,00 %
02.11.2016 02:20 6,5 C 6,1 C 5,0 C 94 % 15 lf 1018,7 hPa 0,0 l/m 0 min 0 min 0 W/m 12,6 km/h (3 Bft) 100,00 %
02.11.2016 02:22 6,5 C 6,1 C 5,0 C 94 % 15 lf 1018,8 hPa 0,0 l/m 0 min 0 min 0 W/m 8,4 km/h (2 Bft) 97,87 %
02.11.2016 02:24 6,5 C 6,1 C 5,0 C 94 % 15 lf 1018,7 hPa 0,0 l/m 0 min 0 min 0 W/m 6,3 km/h (2 Bft) 100,00 %
02.11.2016 02:26 6,6 C 6,1 C 5,0 C 94 % 15 lf 1018,7 hPa 0,0 l/m 0 min 0 min 0 W/m 6,3 km/h (2 Bft) 100,00 %
02.11.2016 02:28 6,6 C 6,1 C 4,4 C 94 % 15 lf 1018,7 hPa 0,0 l/m 0 min 0 min 0 W/m 6,3 km/h (2 Bft) 100,00 %
02.11.2016 02:30 6,6 C 6,1 C 4,4 C 94 % 15 lf 1018,7 hPa 0,0 l/m 0 min 0 min 0 W/m 4,2 km/h (1 Bft) 97,87 %
02.11.2016 02:32 6,6 C 6,1 C 4,4 C 94 % 15 lf 1018,7 hPa 0,0 l/m 0 min 0 min 0 W/m 8,4 km/h (2 Bft) 100,00 %
02.11.2016 02:34 6,6 C 6,1 C 4,4 C 94 % 15 lf 1018,7 hPa 0,0 l/m 0 min 0 min 0 W/m 6,3 km/h (2 Bft) 95,74 %
02.11.2016 02:36 6,6 C 6,1 C 4,4 C 94 % 15 lf 1018,7 hPa 0,0 l/m 0 min 0 min 0 W/m 12,6 km/h (3 Bft) 100,00 %
02.11.2016 02:38 6,6 C 6,1 C 5,0 C 94 % 15 lf 1018,7 hPa 0,0 l/m 0 min 0 min 0 W/m 8,4 km/h (2 Bft) 97,87 %
02.11.2016 02:40 6,6 C 6,1 C 5,0 C 94 % 15 lf 1018,7 hPa 0,0 l/m 0 min 0 min 0 W/m 6,3 km/h (2 Bft) 97,87 %
02.11.2016 02:42 6,6 C 6,1 C 5,0 C 94 % 15 lf 1018,7 hPa 0,0 l/m 0 min 0 min 0 W/m 8,4 km/h (2 Bft) 97,87 %
02.11.2016 02:44 6,6 C 6,1 C 5,0 C 94 % 15 lf 1018,7 hPa 0,0 l/m 0 min 0 min 0 W/m 8,4 km/h (2 Bft) 97,83 %
02.11.2016 02:46 6,6 C 6,1 C 5,0 C 94 % 15 lf 1018,6 hPa 0,0 l/m 0 min 0 min 0 W/m 6,3 km/h (2 Bft) 93,62 %
02.11.2016 02:48 6,6 C 6,1 C 5,0 C 95 % 15 lf 1018,7 hPa 0,0 l/m 0 min 0 min 0 W/m 8,4 km/h (2 Bft) 95,74 %
02.11.2016 02:50 6,6 C 6,7 C 5,0 C 95 % 15 lf 1018,6 hPa 0,0 l/m 0 min 0 min 0 W/m 8,4 km/h (2 Bft) 95,74 %
02.11.2016 02:52 6,6 C 6,7 C 5,6 C 95 % 15 lf 1018,6 hPa 0,0 l/m 0 min 0 min 0 W/m 6,3 km/h (2 Bft) 91,49 %
02.11.2016 02:54 6,6 C 6,7 C 5,6 C 95 % 15 lf 1018,7 hPa 0,0 l/m 0 min 0 min 0 W/m 6,3 km/h (2 Bft) 95,74 %
02.11.2016 02:56 6,6 C 6,7 C 5,6 C 95 % 15 lf 1018,6 hPa 0,0 l/m 0 min 0 min 0 W/m 10,5 km/h (2 Bft) 95,65 %
02.11.2016 02:58 6,6 C 6,7 C 5,6 C 95 % 15 lf 1018,6 hPa 0,0 l/m 0 min 0 min 0 W/m 8,4 km/h (2 Bft) 93,62 %
02.11.2016 03:00 6,6 C 6,7 C 5,6 C 95 % 15 lf 1018,6 hPa 0,0 l/m 0 min 0 min 0 W/m 10,5 km/h (2 Bft) 93,62 %
02.11.2016 03:02 6,7 C 6,7 C 5,6 C 95 % 15 lf 1018,6 hPa 0,0 l/m 0 min 0 min 0 W/m 12,6 km/h (3 Bft) 91,49 %
02.11.2016 03:04 6,7 C 6,7 C 5,6 C 95 % 15 lf 1018,6 hPa 0,0 l/m 0 min 0 min 0 W/m 6,3 km/h (2 Bft) 93,62 %
02.11.2016 03:06 6,7 C 6,7 C 5,6 C 95 % 15 lf 1018,6 hPa 0,0 l/m 0 min 0 min 0 W/m 6,3 km/h (2 Bft) 93,62 %
02.11.2016 03:08 6,8 C 6,7 C 5,6 C 95 % 15 lf 1018,7 hPa 0,0 l/m 0 min 0 min 0 W/m 10,5 km/h (2 Bft) 86,96 %
02.11.2016 03:10 6,8 C 6,7 C 5,6 C 95 % 15 lf 1018,6 hPa 0,0 l/m 0 min 0 min 0 W/m 6,3 km/h (2 Bft) 95,74 %
02.11.2016 03:12 6,8 C 6,7 C 5,6 C 95 % 15 lf 1018,6 hPa 0,0 l/m 0 min 0 min 0 W/m 6,3 km/h (2 Bft) 93,62 %
02.11.2016 03:14 6,8 C 6,7 C 5,6 C 95 % 15 lf 1018,6 hPa 0,0 l/m 0 min 0 min 0 W/m 6,3 km/h (2 Bft) 95,74 %
02.11.2016 03:16 6,8 C 6,7 C 5,6 C 95 % 15 lf 1018,6 hPa 0,0 l/m 0 min 0 min 0 W/m 6,3 km/h (2 Bft) 89,36 %
02.11.2016 03:18 6,8 C 6,7 C 5,6 C 95 % 15 lf 1018,6 hPa 0,0 l/m 0 min 0 min 0 W/m 6,3 km/h (2 Bft) 93,48 %
02.11.2016 03:20 6,8 C 6,7 C 5,6 C 95 % 15 lf 1018,6 hPa 0,0 l/m 0 min 0 min 0 W/m 10,5 km/h (2 Bft) 89,36 %
02.11.2016 03:22 6,8 C 6,7 C 5,6 C 95 % 15 lf 1018,6 hPa 0,0 l/m 0 min 0 min 0 W/m 6,3 km/h (2 Bft) 93,62 %
02.11.2016 03:24 6,8 C 6,7 C 5,0 C 95 % 15 lf 1018,6 hPa 0,0 l/m 0 min 0 min 1 W/m 10,5 km/h (2 Bft) 93,62 %
02.11.2016 03:26 6,8 C 6,7 C 5,0 C 95 % 15 lf 1018,6 hPa 0,0 l/m 0 min 0 min 5 W/m 8,4 km/h (2 Bft) 89,36 %
02.11.2016 03:28 6,8 C 6,1 C 5,0 C 95 % 15 lf 1018,6 hPa 0,0 l/m 0 min 0 min 0 W/m 10,5 km/h (2 Bft) 97,87 %
02.11.2016 03:30 6,8 C 6,1 C 5,0 C 95 % 15 lf 1018,6 hPa 0,0 l/m 0 min 0 min 0 W/m 8,4 km/h (2 Bft) 95,74 %
02.11.2016 03:32 6,8 C 6,1 C 5,0 C 96 % 15 lf 1018,5 hPa 0,0 l/m 0 min 0 min 0 W/m 12,6 km/h (3 Bft) 100,00 %
02.11.2016 03:34 6,8 C 6,1 C 5,0 C 96 % 15 lf 1018,6 hPa 0,0 l/m 0 min 0 min 0 W/m 12,6 km/h (3 Bft) 97,87 %
02.11.2016 03:36 6,8 C 6,1 C 5,0 C 96 % 15 lf 1018,6 hPa 0,0 l/m 0 min 0 min 0 W/m 14,6 km/h (3 Bft) 97,87 %
02.11.2016 03:38 6,8 C 6,1 C 5,0 C 96 % 15 lf 1018,6 hPa 0,0 l/m 0 min 0 min 0 W/m 8,4 km/h (2 Bft) 97,87 %
02.11.2016 03:40 6,8 C 6,1 C 5,0 C 96 % 15 lf 1018,5 hPa 0,0 l/m 0 min 0 min 0 W/m 12,6 km/h (3 Bft) 95,74 %
02.11.2016 03:42 6,8 C 6,1 C 5,0 C 96 % 15 lf 1018,4 hPa 0,0 l/m 0 min 0 min 0 W/m 8,4 km/h (2 Bft) 97,83 %
02.11.2016 03:44 6,8 C 6,1 C 5,0 C 96 % 15 lf 1018,5 hPa 0,0 l/m 0 min 0 min 0 W/m 8,4 km/h (2 Bft) 95,74 %
02.11.2016 03:46 6,7 C 6,1 C 5,0 C 96 % 15 lf 1018,5 hPa 0,0 l/m 0 min 0 min 0 W/m 6,3 km/h (2 Bft) 100,00 %
02.11.2016 03:48 6,7 C 6,1 C 5,0 C 96 % 15 lf 1018,5 hPa 0,0 l/m 0 min 0 min 0 W/m 8,4 km/h (2 Bft) 97,87 %
02.11.2016 03:50 6,7 C 6,1 C 5,0 C 96 % 15 lf 1018,4 hPa 0,0 l/m 0 min 0 min 0 W/m 8,4 km/h (2 Bft) 100,00 %
02.11.2016 03:52 6,7 C 6,1 C 5,0 C 96 % 15 lf 1018,4 hPa 0,0 l/m 0 min 0 min 0 W/m 10,5 km/h (2 Bft) 95,74 %
02.11.2016 03:54 6,7 C 6,1 C 5,0 C 96 % 15 lf 1018,3 hPa 0,0 l/m 0 min 0 min 0 W/m 6,3 km/h (2 Bft) 100,00 %
02.11.2016 03:56 6,7 C 6,1 C 5,0 C 96 % 15 lf 1018,4 hPa 0,0 l/m 0 min 0 min 0 W/m 6,3 km/h (2 Bft) 100,00 %
02.11.2016 03:58 6,7 C 6,1 C 5,0 C 96 % 15 lf 1018,3 hPa 0,0 l/m 0 min 0 min 0 W/m 10,5 km/h (2 Bft) 100,00 %
02.11.2016 04:00 6,7 C 6,1 C 5,0 C 96 % 15 lf 1018,2 hPa 0,0 l/m 0 min 0 min 0 W/m 8,4 km/h (2 Bft) 95,74 %
02.11.2016 04:02 6,7 C 6,1 C 5,0 C 96 % 15 lf 1018,3 hPa 0,0 l/m 0 min 0 min 0 W/m 6,3 km/h (2 Bft) 100,00 %
02.11.2016 04:04 6,7 C 6,1 C 5,0 C 96 % 15 lf 1018,2 hPa 0,0 l/m 0 min 0 min 0 W/m 8,4 km/h (2 Bft) 97,87 %
02.11.2016 04:06 6,7 C 6,1 C 5,0 C 96 % 15 lf 1018,2 hPa 0,0 l/m 0 min 0 min 0 W/m 6,3 km/h (2 Bft) 100,00 %
02.11.2016 04:08 6,7 C 6,1 C 5,0 C 96 % 15 lf 1018,3 hPa 0,0 l/m 0 min 0 min 0 W/m 8,4 km/h (2 Bft) 95,74 %
02.11.2016 04:10 6,6 C 6,1 C 5,0 C 96 % 15 lf 1018,3 hPa 0,0 l/m 0 min 0 min 0 W/m 8,4 km/h (2 Bft) 100,00 %
02.11.2016 04:12 6,6 C 6,1 C 5,0 C 96 % 15 lf 1018,3 hPa 0,0 l/m 0 min 0 min 0 W/m 8,4 km/h (2 Bft) 95,74 %
02.11.2016 04:14 6,6 C 6,1 C 5,0 C 96 % 15 lf 1018,2 hPa 0,0 l/m 0 min 0 min 0 W/m 8,4 km/h (2 Bft) 100,00 %
02.11.2016 04:16 6,6 C 6,1 C 5,0 C 96 % 15 lf 1018,2 hPa 0,0 l/m 0 min 0 min 0 W/m 10,5 km/h (2 Bft) 97,87 %
02.11.2016 04:18 6,6 C 6,1 C 5,0 C 96 % 15 lf 1018,2 hPa 0,0 l/m 0 min 0 min 0 W/m 8,4 km/h (2 Bft) 97,83 %
02.11.2016 04:20 6,6 C 6,7 C 5,6 C 96 % 15 lf 1018,2 hPa 0,0 l/m 0 min 0 min 0 W/m 8,4 km/h (2 Bft) 97,87 %
02.11.2016 04:22 6,7 C 6,7 C 5,6 C 96 % 15 lf 1018,2 hPa 0,0 l/m 0 min 0 min 0 W/m 10,5 km/h (2 Bft) 93,62 %
02.11.2016 04:24 6,6 C 6,7 C 5,6 C 96 % 15 lf 1018,1 hPa 0,0 l/m 0 min 0 min 0 W/m 8,4 km/h (2 Bft) 97,87 %
02.11.2016 04:26 6,7 C 6,7 C 5,6 C 96 % 15 lf 1018,1 hPa 0,0 l/m 0 min 0 min 0 W/m 8,4 km/h (2 Bft) 97,87 %
02.11.2016 04:28 6,7 C 6,7 C 5,6 C 96 % 15 lf 1018,1 hPa 0,0 l/m 0 min 0 min 0 W/m 10,5 km/h (2 Bft) 97,87 %
02.11.2016 04:30 6,7 C 6,7 C 5,6 C 96 % 15 lf 1018,1 hPa 0,0 l/m 0 min 0 min 0 W/m 10,5 km/h (2 Bft) 95,65 %
02.11.2016 04:32 6,7 C 6,7 C 5,0 C 96 % 15 lf 1018,1 hPa 0,0 l/m 0 min 0 min 0 W/m 10,5 km/h (2 Bft) 97,87 %
02.11.2016 04:34 6,7 C 6,7 C 5,0 C 96 % 15 lf 1018,1 hPa 0,0 l/m 0 min 0 min 0 W/m 8,4 km/h (2 Bft) 95,74 %
02.11.2016 04:36 6,7 C 6,7 C 5,0 C 96 % 15 lf 1018,1 hPa 0,0 l/m 0 min 0 min 0 W/m 10,5 km/h (2 Bft) 97,87 %
02.11.2016 04:38 6,7 C 6,7 C 5,0 C 96 % 15 lf 1018,0 hPa 0,0 l/m 0 min 0 min 0 W/m 12,6 km/h (3 Bft) 95,74 %
02.11.2016 04:40 6,7 C 6,7 C 5,0 C 96 % 15 lf 1018,0 hPa 0,0 l/m 0 min 0 min 0 W/m 6,3 km/h (2 Bft) 93,48 %
02.11.2016 04:42 6,7 C 6,7 C 5,0 C 96 % 15 lf 1018,0 hPa 0,0 l/m 0 min 0 min 0 W/m 12,6 km/h (3 Bft) 97,87 %
02.11.2016 04:44 6,7 C 6,7 C 5,0 C 96 % 15 lf 1017,9 hPa 0,0 l/m 0 min 0 min 0 W/m 12,6 km/h (3 Bft) 97,87 %
02.11.2016 04:46 6,7 C 6,7 C 5,0 C 96 % 15 lf 1018,0 hPa 0,0 l/m 0 min 0 min 0 W/m 6,3 km/h (2 Bft) 97,87 %
02.11.2016 04:48 6,7 C 6,7 C 5,0 C 96 % 15 lf 1017,9 hPa 0,0 l/m 0 min 0 min 0 W/m 6,3 km/h (2 Bft) 95,74 %
02.11.2016 04:50 6,7 C 6,7 C 5,6 C 96 % 15 lf 1017,9 hPa 0,0 l/m 0 min 0 min 0 W/m 8,4 km/h (2 Bft) 95,74 %
02.11.2016 04:52 6,7 C 6,7 C 5,6 C 96 % 15 lf 1017,9 hPa 0,0 l/m 0 min 0 min 0 W/m 10,5 km/h (2 Bft) 95,65 %
02.11.2016 04:54 6,7 C 6,7 C 5,6 C 96 % 15 lf 1017,9 hPa 0,0 l/m 0 min 0 min 0 W/m 6,3 km/h (2 Bft) 95,74 %
02.11.2016 04:56 6,7 C 6,7 C 5,6 C 96 % 15 lf 1017,9 hPa 0,0 l/m 0 min 0 min 0 W/m 6,3 km/h (2 Bft) 93,62 %
02.11.2016 04:58 6,7 C 6,7 C 5,6 C 96 % 15 lf 1017,9 hPa 0,0 l/m 0 min 2 min 0 W/m 8,4 km/h (2 Bft) 95,74 %
02.11.2016 05:00 6,7 C 6,7 C 5,6 C 96 % 14 lf 1017,8 hPa 0,0 l/m 0 min 0 min 0 W/m 8,4 km/h (2 Bft) 95,74 %
02.11.2016 05:02 6,7 C 6,7 C 5,6 C 96 % 14 lf 1017,9 hPa 0,0 l/m 0 min 0 min 0 W/m 8,4 km/h (2 Bft) 95,74 %
02.11.2016 05:04 6,7 C 6,7 C 5,6 C 96 % 15 lf 1017,8 hPa 0,0 l/m 0 min 2 min 0 W/m 6,3 km/h (2 Bft) 95,65 %
02.11.2016 05:06 6,7 C 6,7 C 5,6 C 96 % 15 lf 1017,9 hPa 0,0 l/m 0 min 2 min 0 W/m 10,5 km/h (2 Bft) 95,74 %
02.11.2016 05:08 6,7 C 6,7 C 5,6 C 96 % 15 lf 1017,8 hPa 0,0 l/m 0 min 2 min 0 W/m 8,4 km/h (2 Bft) 93,62 %
02.11.2016 05:10 6,7 C 6,7 C 5,6 C 96 % 15 lf 1017,8 hPa 0,0 l/m 0 min 2 min 0 W/m 10,5 km/h (2 Bft) 95,74 %
02.11.2016 05:12 6,7 C 6,7 C 5,6 C 96 % 15 lf 1017,8 hPa 0,0 l/m 0 min 2 min 0 W/m 12,6 km/h (3 Bft) 95,74 %
02.11.2016 05:14 6,7 C 6,7 C 5,6 C 96 % 15 lf 1017,8 hPa 0,0 l/m 0 min 2 min 0 W/m 10,5 km/h (2 Bft) 91,49 %
02.11.2016 05:16 6,7 C 6,7 C 5,6 C 96 % 15 lf 1017,8 hPa 0,0 l/m 0 min 0 min 0 W/m 8,4 km/h (2 Bft) 91,30 %
02.11.2016 05:18 6,7 C 6,7 C 5,6 C 96 % 15 lf 1017,8 hPa 0,0 l/m 0 min 2 min 0 W/m 12,6 km/h (3 Bft) 93,62 %
02.11.2016 05:20 6,7 C 6,7 C 5,6 C 96 % 15 lf 1017,7 hPa 0,0 l/m 0 min 0 min 0 W/m 10,5 km/h (2 Bft) 97,87 %
02.11.2016 05:22 6,7 C 6,7 C 5,6 C 96 % 15 lf 1017,8 hPa 0,0 l/m 0 min 0 min 0 W/m 8,4 km/h (2 Bft) 97,87 %
02.11.2016 05:24 6,7 C 6,7 C 5,6 C 96 % 15 lf 1017,8 hPa 0,0 l/m 0 min 0 min 0 W/m 8,4 km/h (2 Bft) 95,74 %
02.11.2016 05:26 6,7 C 6,7 C 5,6 C 96 % 15 lf 1017,8 hPa 0,0 l/m 0 min 0 min 0 W/m 12,6 km/h (3 Bft) 93,62 %
02.11.2016 05:28 6,7 C 6,7 C 5,6 C 96 % 15 lf 1017,8 hPa 0,0 l/m 0 min 0 min 0 W/m 8,4 km/h (2 Bft) 95,65 %
02.11.2016 05:30 6,7 C 6,7 C 5,6 C 96 % 15 lf 1017,9 hPa 0,0 l/m 0 min 0 min 0 W/m 8,4 km/h (2 Bft) 100,00 %
02.11.2016 05:32 6,8 C 6,7 C 5,6 C 96 % 15 lf 1017,8 hPa 0,0 l/m 0 min 0 min 0 W/m 16,7 km/h (3 Bft) 100,00 %
02.11.2016 05:34 6,8 C 6,7 C 5,6 C 97 % 15 lf 1017,8 hPa 0,0 l/m 0 min 0 min 0 W/m 14,6 km/h (3 Bft) 100,00 %
02.11.2016 05:36 6,8 C 6,7 C 5,6 C 97 % 15 lf 1017,8 hPa 0,0 l/m 0 min 0 min 0 W/m 8,4 km/h (2 Bft) 95,74 %
02.11.2016 05:38 6,8 C 6,7 C 5,6 C 97 % 15 lf 1017,8 hPa 0,0 l/m 0 min 2 min 0 W/m 14,6 km/h (3 Bft) 97,83 %
02.11.2016 05:40 6,8 C 6,7 C 5,6 C 97 % 15 lf 1017,8 hPa 0,0 l/m 0 min 0 min 0 W/m 16,7 km/h (3 Bft) 91,49 %
02.11.2016 05:42 6,8 C 6,7 C 5,6 C 97 % 15 lf 1017,8 hPa 0,0 l/m 0 min 0 min 0 W/m 10,5 km/h (2 Bft) 95,74 %
02.11.2016 05:44 6,8 C 6,7 C 5,6 C 97 % 15 lf 1017,8 hPa 0,0 l/m 0 min 0 min 0 W/m 12,6 km/h (3 Bft) 93,62 %
02.11.2016 05:46 6,8 C 6,7 C 5,6 C 97 % 15 lf 1017,8 hPa 0,0 l/m 0 min 0 min 0 W/m 10,5 km/h (2 Bft) 95,74 %
02.11.2016 05:48 6,8 C 6,7 C 5,6 C 97 % 15 lf 1017,8 hPa 0,0 l/m 0 min 2 min 0 W/m 12,6 km/h (3 Bft) 93,62 %
02.11.2016 05:50 6,8 C 6,7 C 5,6 C 97 % 15 lf 1017,8 hPa 0,0 l/m 0 min 2 min 0 W/m 16,7 km/h (3 Bft) 91,49 %
02.11.2016 05:52 6,8 C 6,7 C 5,6 C 97 % 15 lf 1017,7 hPa 0,0 l/m 0 min 2 min 0 W/m 20,9 km/h (4 Bft) 93,48 %
02.11.2016 05:54 6,8 C 6,7 C 5,6 C 97 % 15 lf 1017,8 hPa 0,0 l/m 0 min 2 min 0 W/m 20,9 km/h (4 Bft) 91,49 %
02.11.2016 05:56 6,8 C 6,7 C 5,6 C 97 % 15 lf 1017,8 hPa 0,0 l/m 0 min 2 min 0 W/m 14,6 km/h (3 Bft) 93,62 %
02.11.2016 05:58 6,8 C 6,7 C 5,6 C 97 % 15 lf 1017,7 hPa 0,0 l/m 0 min 2 min 0 W/m 10,5 km/h (2 Bft) 93,62 %
02.11.2016 06:00 6,8 C 6,7 C 5,6 C 97 % 15 lf 1017,7 hPa 0,0 l/m 0 min 2 min 0 W/m 16,7 km/h (3 Bft) 95,74 %
02.11.2016 06:02 6,8 C 6,7 C 5,6 C 97 % 15 lf 1017,7 hPa 0,0 l/m 0 min 0 min 0 W/m 10,5 km/h (2 Bft) 95,65 %
02.11.2016 06:04 6,8 C 6,7 C 5,6 C 97 % 15 lf 1017,8 hPa 0,0 l/m 0 min 0 min 0 W/m 12,6 km/h (3 Bft) 95,83 %
02.11.2016 06:06 6,8 C 6,7 C 5,6 C 97 % 15 lf 1017,7 hPa 0,0 l/m 0 min 0 min 0 W/m 14,6 km/h (3 Bft) 93,62 %
02.11.2016 06:08 6,8 C 6,7 C 5,6 C 97 % 15 lf 1017,7 hPa 0,0 l/m 0 min 0 min 0 W/m 12,6 km/h (3 Bft) 93,62 %
02.11.2016 06:10 6,8 C 6,7 C 5,6 C 97 % 15 lf 1017,7 hPa 0,0 l/m 0 min 0 min 0 W/m 12,6 km/h (3 Bft) 89,36 %
02.11.2016 06:12 6,8 C 6,7 C 5,6 C 97 % 15 lf 1017,7 hPa 0,0 l/m 0 min 0 min 0 W/m 14,6 km/h (3 Bft) 93,62 %
02.11.2016 06:14 6,8 C 6,7 C 5,6 C 97 % 15 lf 1017,8 hPa 0,0 l/m 0 min 0 min 0 W/m 14,6 km/h (3 Bft) 91,30 %
02.11.2016 06:16 6,8 C 6,7 C 5,6 C 96 % 15 lf 1017,8 hPa 0,0 l/m 0 min 0 min 0 W/m 18,8 km/h (3 Bft) 95,74 %
02.11.2016 06:18 6,8 C 6,7 C 5,6 C 96 % 15 lf 1017,8 hPa 0,0 l/m 0 min 0 min 0 W/m 6,3 km/h (2 Bft) 93,62 %
02.11.2016 06:20 6,8 C 6,7 C 5,6 C 96 % 15 lf 1017,8 hPa 0,0 l/m 0 min 0 min 0 W/m 18,8 km/h (3 Bft) 93,62 %
02.11.2016 06:22 6,8 C 6,7 C 5,6 C 96 % 15 lf 1017,8 hPa 0,0 l/m 0 min 0 min 0 W/m 6,3 km/h (2 Bft) 95,74 %
02.11.2016 06:24 6,8 C 6,7 C 5,6 C 96 % 15 lf 1017,8 hPa 0,0 l/m 0 min 0 min 0 W/m 10,5 km/h (2 Bft) 95,74 %
02.11.2016 06:26 6,8 C 6,7 C 5,6 C 96 % 15 lf 1017,7 hPa 0,0 l/m 0 min 0 min 0 W/m 10,5 km/h (2 Bft) 93,48 %
02.11.2016 06:28 6,8 C 6,7 C 5,6 C 96 % 15 lf 1017,7 hPa 0,0 l/m 0 min 0 min 0 W/m 8,4 km/h (2 Bft) 100,00 %
02.11.2016 06:30 6,8 C 6,7 C 5,6 C 96 % 15 lf 1017,8 hPa 0,0 l/m 0 min 0 min 0 W/m 8,4 km/h (2 Bft) 100,00 %
02.11.2016 06:32 6,8 C 6,7 C 5,6 C 96 % 15 lf 1017,8 hPa 0,0 l/m 0 min 0 min 0 W/m 6,3 km/h (2 Bft) 100,00 %
02.11.2016 06:34 6,8 C 6,7 C 5,6 C 96 % 15 lf 1017,8 hPa 0,0 l/m 0 min 0 min 0 W/m 10,5 km/h (2 Bft) 100,00 %
02.11.2016 06:36 6,8 C 6,7 C 5,6 C 96 % 15 lf 1017,8 hPa 0,0 l/m 0 min 0 min 0 W/m 14,6 km/h (3 Bft) 95,65 %
02.11.2016 06:38 6,8 C 6,7 C 5,6 C 96 % 15 lf 1017,8 hPa 0,0 l/m 0 min 0 min 0 W/m 8,4 km/h (2 Bft) 97,87 %
02.11.2016 06:40 6,8 C 6,7 C 5,6 C 96 % 15 lf 1017,7 hPa 0,0 l/m 0 min 0 min 5 W/m 8,4 km/h (2 Bft) 95,74 %
02.11.2016 06:42 6,8 C 6,7 C 5,6 C 96 % 15 lf 1017,7 hPa 0,0 l/m 0 min 0 min 5 W/m 6,3 km/h (2 Bft) 97,87 %
02.11.2016 06:44 6,8 C 6,7 C 5,6 C 96 % 15 lf 1017,7 hPa 0,0 l/m 0 min 0 min 5 W/m 8,4 km/h (2 Bft) 91,67 %
02.11.2016 06:46 6,8 C 6,7 C 5,6 C 96 % 15 lf 1017,7 hPa 0,0 l/m 0 min 0 min 5 W/m 8,4 km/h (2 Bft) 97,87 %
02.11.2016 06:48 6,8 C 6,7 C 5,6 C 96 % 15 lf 1017,7 hPa 0,0 l/m 0 min 0 min 5 W/m 10,5 km/h (2 Bft) 93,62 %
02.11.2016 06:49 6,8 C 6,7 C 5,6 C 96 % 15 lf 1017,8 hPa 0,0 l/m 0 min 0 min 0 W/m 10,5 km/h (2 Bft) 91,30 %
02.11.2016 06:50 6,8 C 6,7 C 5,6 C 96 % 15 lf 1017,8 hPa 0,0 l/m 0 min 0 min 0 W/m 8,4 km/h (2 Bft) 100,00 %
02.11.2016 06:51 6,8 C 6,7 C 5,6 C 96 % 14 lf 1017,8 hPa 0,0 l/m 0 min 0 min 0 W/m 10,5 km/h (2 Bft) 100,00 %
02.11.2016 06:52 6,8 C 6,7 C 5,6 C 96 % 14 lf 1017,8 hPa 0,0 l/m 0 min 0 min 0 W/m 8,4 km/h (2 Bft) 95,65 %
02.11.2016 06:53 6,8 C 6,7 C 5,6 C 96 % 14 lf 1017,8 hPa 0,0 l/m 0 min 0 min 4 W/m 6,3 km/h (2 Bft) 95,65 %
02.11.2016 06:56 6,8 C 6,7 C 5,0 C 96 % 14 lf 1017,7 hPa 0,0 l/m 0 min 0 min 2 W/m 10,5 km/h (2 Bft) 97,50 %
02.11.2016 06:58 6,8 C 6,7 C 5,0 C 96 % 13 lf 1017,8 hPa 0,0 l/m 0 min 0 min 1 W/m 10,5 km/h (2 Bft) 95,35 %
02.11.2016 07:00 6,8 C 6,7 C 5,0 C 96 % 13 lf 1017,8 hPa 0,0 l/m 0 min 0 min 0 W/m 8,4 km/h (2 Bft) 93,48 %
02.11.2016 07:02 6,8 C 6,7 C 5,0 C 96 % 12 lf 1017,8 hPa 0,0 l/m 0 min 0 min 0 W/m 10,5 km/h (2 Bft) 93,62 %
02.11.2016 07:04 6,8 C 6,7 C 5,6 C 96 % 12 lf 1017,8 hPa 0,0 l/m 0 min 0 min 2 W/m 10,5 km/h (2 Bft) 96,43 %
02.11.2016 07:06 6,7 C 6,7 C 5,6 C 96 % 13 lf 1017,8 hPa 0,0 l/m 0 min 0 min 0 W/m 12,6 km/h (3 Bft) 100,00 %
02.11.2016 07:08 6,7 C 6,7 C 5,6 C 96 % 15 lf 1017,8 hPa 0,0 l/m 0 min 2 min 0 W/m 12,6 km/h (3 Bft) 100,00 %
02.11.2016 07:10 6,7 C 6,7 C 5,6 C 96 % 15 lf 1017,8 hPa 0,0 l/m 0 min 2 min 5 W/m 10,5 km/h (2 Bft) 98,28 %
02.11.2016 07:12 6,7 C 6,7 C 5,6 C 96 % 15 lf 1017,7 hPa 0,0 l/m 0 min 2 min 5 W/m 8,4 km/h (2 Bft) 100,00 %
02.11.2016 07:14 6,7 C 6,7 C 5,6 C 96 % 15 lf 1017,8 hPa 0,0 l/m 0 min 0 min 5 W/m 12,6 km/h (3 Bft) 100,00 %
02.11.2016 07:16 6,7 C 6,7 C 5,6 C 96 % 15 lf 1017,8 hPa 0,0 l/m 0 min 0 min 5 W/m 16,7 km/h (3 Bft) 100,00 %
02.11.2016 07:18 6,7 C 6,7 C 5,6 C 96 % 15 lf 1017,7 hPa 0,0 l/m 0 min 0 min 5 W/m 14,6 km/h (3 Bft) 98,31 %
02.11.2016 07:20 6,7 C 6,7 C 5,6 C 96 % 15 lf 1017,8 hPa 0,2 l/m 0 min 2 min 5 W/m 10,5 km/h (2 Bft) 100,00 %
02.11.2016 07:22 6,7 C 6,7 C 5,6 C 96 % 15 lf 1017,7 hPa 0,0 l/m 0 min 2 min 5 W/m 12,6 km/h (3 Bft) 100,00 %
02.11.2016 07:24 6,7 C 6,7 C 5,0 C 96 % 15 lf 1017,7 hPa 0,0 l/m 0 min 2 min 5 W/m 10,5 km/h (2 Bft) 100,00 %
02.11.2016 07:26 6,7 C 6,1 C 5,0 C 96 % 15 lf 1017,7 hPa 0,0 l/m 0 min 0 min 6 W/m 12,6 km/h (3 Bft) 100,00 %
02.11.2016 07:28 6,7 C 6,1 C 5,0 C 96 % 15 lf 1017,6 hPa 0,0 l/m 0 min 0 min 7 W/m 12,6 km/h (3 Bft) 100,00 %
02.11.2016 07:30 6,7 C 6,1 C 5,0 C 96 % 15 lf 1017,6 hPa 0,0 l/m 0 min 0 min 7 W/m 16,7 km/h (3 Bft) 91,49 %
02.11.2016 07:32 6,7 C 6,1 C 5,0 C 96 % 15 lf 1017,7 hPa 0,0 l/m 0 min 0 min 7 W/m 14,6 km/h (3 Bft) 97,83 %
02.11.2016 07:34 6,7 C 6,1 C 5,0 C 96 % 15 lf 1017,7 hPa 0,0 l/m 0 min 0 min 9 W/m 14,6 km/h (3 Bft) 93,62 %
02.11.2016 07:36 6,7 C 6,1 C 5,0 C 96 % 15 lf 1017,7 hPa 0,0 l/m 0 min 0 min 9 W/m 12,6 km/h (3 Bft) 100,00 %
02.11.2016 07:38 6,7 C 6,1 C 5,0 C 96 % 15 lf 1017,8 hPa 0,0 l/m 0 min 0 min 9 W/m 10,5 km/h (2 Bft) 97,87 %
02.11.2016 07:40 6,7 C 6,1 C 5,0 C 96 % 15 lf 1017,8 hPa 0,0 l/m 0 min 0 min 9 W/m 14,6 km/h (3 Bft) 100,00 %
02.11.2016 07:42 6,7 C 6,1 C 5,0 C 96 % 15 lf 1017,8 hPa 0,0 l/m 0 min 0 min 10 W/m 16,7 km/h (3 Bft) 100,00 %
02.11.2016 07:44 6,7 C 6,1 C 5,0 C 96 % 15 lf 1017,8 hPa 0,0 l/m 0 min 0 min 11 W/m 14,6 km/h (3 Bft) 97,87 %
02.11.2016 07:46 6,7 C 6,1 C 5,0 C 96 % 15 lf 1017,8 hPa 0,0 l/m 0 min 0 min 12 W/m 16,7 km/h (3 Bft) 97,83 %
02.11.2016 07:48 6,7 C 6,7 C 5,0 C 96 % 15 lf 1017,9 hPa 0,0 l/m 0 min 0 min 14 W/m 14,6 km/h (3 Bft) 100,00 %
02.11.2016 07:50 6,7 C 6,7 C 5,0 C 96 % 15 lf 1017,8 hPa 0,0 l/m 0 min 0 min 15 W/m 8,4 km/h (2 Bft) 95,74 %
02.11.2016 07:52 6,7 C 6,7 C 5,0 C 96 % 15 lf 1017,9 hPa 0,0 l/m 0 min 0 min 16 W/m 12,6 km/h (3 Bft) 100,00 %
02.11.2016 07:54 6,7 C 6,7 C 5,0 C 96 % 15 lf 1017,8 hPa 0,0 l/m 0 min 0 min 16 W/m 8,4 km/h (2 Bft) 100,00 %
02.11.2016 07:56 6,7 C 6,7 C 5,0 C 96 % 15 lf 1017,8 hPa 0,0 l/m 0 min 0 min 16 W/m 12,6 km/h (3 Bft) 94,29 %
02.11.2016 07:58 6,6 C 6,1 C 5,0 C 96 % 15 lf 1017,8 hPa 0,0 l/m 0 min 0 min 18 W/m 8,4 km/h (2 Bft) 100,00 %
02.11.2016 08:00 6,6 C 6,1 C 5,0 C 96 % 15 lf 1017,9 hPa 0,0 l/m 0 min 0 min 19 W/m 14,6 km/h (3 Bft) 100,00 %
02.11.2016 08:02 6,6 C 6,1 C 5,0 C 96 % 15 lf 1017,9 hPa 0,0 l/m 0 min 0 min 20 W/m 16,7 km/h (3 Bft) 95,74 %
02.11.2016 08:04 6,6 C 6,1 C 4,4 C 96 % 15 lf 1017,9 hPa 0,0 l/m 0 min 0 min 23 W/m 10,5 km/h (2 Bft) 93,62 %
02.11.2016 08:06 6,6 C 6,1 C 4,4 C 96 % 15 lf 1017,9 hPa 0,0 l/m 0 min 0 min 26 W/m 8,4 km/h (2 Bft) 97,87 %
02.11.2016 08:08 6,6 C 6,1 C 4,4 C 96 % 15 lf 1018,0 hPa 0,0 l/m 0 min 0 min 30 W/m 10,5 km/h (2 Bft) 100,00 %
02.11.2016 08:10 6,6 C 6,1 C 5,0 C 96 % 15 lf 1018,0 hPa 0,0 l/m 0 min 0 min 37 W/m 6,3 km/h (2 Bft) 97,87 %
02.11.2016 08:12 6,6 C 6,7 C 5,0 C 96 % 15 lf 1018,0 hPa 0,0 l/m 0 min 0 min 43 W/m 14,6 km/h (3 Bft) 97,87 %
02.11.2016 08:14 6,6 C 6,7 C 5,0 C 96 % 15 lf 1018,0 hPa 0,0 l/m 0 min 0 min 45 W/m 10,5 km/h (2 Bft) 97,87 %
02.11.2016 08:16 6,6 C 6,7 C 5,6 C 96 % 15 lf 1018,0 hPa 0,0 l/m 2 min 0 min 53 W/m 12,6 km/h (3 Bft) 100,00 %
02.11.2016 08:18 6,6 C 6,7 C 5,6 C 96 % 15 lf 1018,0 hPa 0,0 l/m 2 min 0 min 69 W/m 8,4 km/h (2 Bft) 95,74 %
02.11.2016 08:20 6,6 C 7,2 C 5,6 C 96 % 15 lf 1018,0 hPa 0,0 l/m 2 min 0 min 67 W/m 10,5 km/h (2 Bft) 93,48 %
02.11.2016 08:22 6,6 C 7,2 C 5,6 C 96 % 15 lf 1018,0 hPa 0,0 l/m 0 min 0 min 54 W/m 10,5 km/h (2 Bft) 95,74 %
02.11.2016 08:24 6,6 C 7,2 C 5,6 C 96 % 15 lf 1018,0 hPa 0,0 l/m 0 min 0 min 51 W/m 10,5 km/h (2 Bft) 97,87 %
02.11.2016 08:26 6,6 C 7,2 C 5,6 C 96 % 15 lf 1018,0 hPa 0,0 l/m 0 min 0 min 53 W/m 16,7 km/h (3 Bft) 91,49 %
02.11.2016 08:28 6,7 C 7,2 C 5,6 C 96 % 15 lf 1018,0 hPa 0,0 l/m 2 min 0 min 76 W/m 8,4 km/h (2 Bft) 95,74 %
02.11.2016 08:30 6,7 C 7,2 C 5,6 C 96 % 15 lf 1018,0 hPa 0,0 l/m 2 min 0 min 86 W/m 10,5 km/h (2 Bft) 91,49 %
02.11.2016 08:32 6,7 C 7,2 C 5,6 C 96 % 15 lf 1018,1 hPa 0,0 l/m 0 min 0 min 51 W/m 14,6 km/h (3 Bft) 93,48 %
02.11.2016 08:34 6,7 C 7,2 C 5,6 C 96 % 15 lf 1018,1 hPa 0,0 l/m 0 min 0 min 40 W/m 14,6 km/h (3 Bft) 91,49 %
02.11.2016 08:36 6,8 C 7,2 C 5,6 C 97 % 15 lf 1018,1 hPa 0,0 l/m 0 min 0 min 36 W/m 10,5 km/h (2 Bft) 95,74 %
02.11.2016 08:38 6,8 C 7,2 C 6,1 C 97 % 15 lf 1018,2 hPa 0,0 l/m 0 min 2 min 38 W/m 12,6 km/h (3 Bft) 93,62 %
02.11.2016 08:40 6,8 C 7,2 C 6,1 C 97 % 15 lf 1018,1 hPa 0,0 l/m 0 min 0 min 46 W/m 10,5 km/h (2 Bft) 93,62 %
02.11.2016 08:42 6,9 C 7,2 C 6,1 C 97 % 15 lf 1018,1 hPa 0,0 l/m 0 min 0 min 59 W/m 12,6 km/h (3 Bft) 89,36 %
02.11.2016 08:44 6,9 C 7,2 C 6,1 C 97 % 15 lf 1018,1 hPa 0,0 l/m 0 min 0 min 66 W/m 12,6 km/h (3 Bft) 91,30 %
02.11.2016 08:46 6,9 C 7,2 C 6,1 C 97 % 15 lf 1018,0 hPa 0,0 l/m 0 min 0 min 71 W/m 12,6 km/h (3 Bft) 91,49 %
02.11.2016 08:48 6,9 C 7,2 C 6,1 C 97 % 15 lf 1018,0 hPa 0,0 l/m 0 min 0 min 58 W/m 14,6 km/h (3 Bft) 87,23 %
02.11.2016 08:50 7,0 C 7,2 C 6,1 C 97 % 15 lf 1018,0 hPa 0,0 l/m 0 min 0 min 48 W/m 8,4 km/h (2 Bft) 91,49 %
02.11.2016 08:52 7,0 C 7,8 C 6,1 C 97 % 15 lf 1018,0 hPa 0,0 l/m 0 min 0 min 50 W/m 18,8 km/h (3 Bft) 89,36 %
02.11.2016 08:54 7,0 C 7,8 C 6,1 C 97 % 15 lf 1018,1 hPa 0,0 l/m 0 min 0 min 53 W/m 12,6 km/h (3 Bft) 87,23 %
02.11.2016 08:56 7,0 C 7,8 C 6,1 C 97 % 15 lf 1018,0 hPa 0,0 l/m 0 min 0 min 55 W/m 14,6 km/h (3 Bft) 91,30 %
02.11.2016 08:58 7,1 C 7,8 C 6,1 C 97 % 15 lf 1018,2 hPa 0,0 l/m 0 min 0 min 61 W/m 10,5 km/h (2 Bft) 93,62 %
02.11.2016 09:00 7,1 C 7,8 C 6,1 C 97 % 15 lf 1018,1 hPa 0,0 l/m 0 min 0 min 63 W/m 10,5 km/h (2 Bft) 89,36 %
02.11.2016 09:02 7,1 C 7,8 C 6,1 C 97 % 15 lf 1018,1 hPa 0,0 l/m 0 min 0 min 64 W/m 10,5 km/h (2 Bft) 89,36 %
02.11.2016 09:04 7,1 C 7,8 C 6,1 C 97 % 15 lf 1018,1 hPa 0,0 l/m 0 min 0 min 67 W/m 18,8 km/h (3 Bft) 95,74 %
02.11.2016 09:06 7,1 C 7,8 C 6,1 C 97 % 15 lf 1018,2 hPa 0,0 l/m 0 min 0 min 69 W/m 10,5 km/h (2 Bft) 95,65 %
02.11.2016 09:08 7,1 C 7,8 C 6,1 C 97 % 15 lf 1018,2 hPa 0,0 l/m 0 min 0 min 83 W/m 12,6 km/h (3 Bft) 91,49 %
02.11.2016 09:10 7,2 C 7,8 C 6,1 C 97 % 15 lf 1018,2 hPa 0,0 l/m 0 min 0 min 94 W/m 16,7 km/h (3 Bft) 95,74 %
02.11.2016 09:12 7,2 C 8,3 C 6,7 C 97 % 15 lf 1018,3 hPa 0,0 l/m 0 min 0 min 96 W/m 8,4 km/h (2 Bft) 93,62 %
02.11.2016 09:14 7,2 C 8,3 C 6,7 C 97 % 14 lf 1018,3 hPa 0,0 l/m 0 min 0 min 85 W/m 10,5 km/h (2 Bft) 95,74 %
02.11.2016 09:16 7,2 C 8,3 C 6,7 C 97 % 14 lf 1018,2 hPa 0,0 l/m 0 min 0 min 106 W/m 16,7 km/h (3 Bft) 95,74 %
02.11.2016 09:18 7,2 C 8,3 C 6,7 C 97 % 13 lf 1018,3 hPa 0,0 l/m 0 min 0 min 102 W/m 16,7 km/h (3 Bft) 93,48 %
02.11.2016 09:20 7,3 C 8,3 C 6,7 C 97 % 15 lf 1018,2 hPa 0,0 l/m 0 min 2 min 86 W/m 14,6 km/h (3 Bft) 93,62 %
02.11.2016 09:22 7,3 C 7,8 C 6,7 C 97 % 15 lf 1018,2 hPa 0,0 l/m 0 min 2 min 76 W/m 12,6 km/h (3 Bft) 93,62 %
02.11.2016 09:24 7,3 C 7,8 C 6,7 C 97 % 15 lf 1018,2 hPa 0,0 l/m 0 min 2 min 74 W/m 12,6 km/h (3 Bft) 95,74 %
02.11.2016 09:26 7,3 C 7,8 C 6,7 C 97 % 15 lf 1018,2 hPa 0,0 l/m 0 min 2 min 76 W/m 12,6 km/h (3 Bft) 93,62 %
02.11.2016 09:28 7,3 C 7,8 C 6,7 C 97 % 15 lf 1018,1 hPa 0,0 l/m 0 min 2 min 76 W/m 12,6 km/h (3 Bft) 95,74 %
02.11.2016 09:30 7,4 C 7,8 C 6,7 C 97 % 15 lf 1018,1 hPa 0,0 l/m 0 min 0 min 89 W/m 14,6 km/h (3 Bft) 97,83 %
02.11.2016 09:32 7,4 C 7,8 C 6,7 C 97 % 15 lf 1018,2 hPa 0,0 l/m 0 min 0 min 96 W/m 18,8 km/h (3 Bft) 95,74 %
02.11.2016 09:34 7,4 C 8,3 C 6,7 C 97 % 15 lf 1018,2 hPa 0,0 l/m 0 min 0 min 109 W/m 12,6 km/h (3 Bft) 97,14 %
02.11.2016 09:36 7,4 C 8,3 C 6,7 C 97 % 15 lf 1018,2 hPa 0,0 l/m 0 min 0 min 112 W/m 6,3 km/h (2 Bft) 98,31 %
02.11.2016 09:38 7,5 C 8,9 C 6,7 C 97 % 15 lf 1018,2 hPa 0,0 l/m 0 min 0 min 112 W/m 12,6 km/h (3 Bft) 97,87 %
02.11.2016 09:40 7,5 C 8,9 C 6,7 C 97 % 15 lf 1018,3 hPa 0,0 l/m 0 min 0 min 110 W/m 12,6 km/h (3 Bft) 97,87 %
02.11.2016 09:42 7,5 C 8,9 C 6,7 C 97 % 15 lf 1018,3 hPa 0,0 l/m 0 min 0 min 102 W/m 10,5 km/h (2 Bft) 100,00 %
02.11.2016 09:44 7,6 C 8,9 C 6,7 C 97 % 15 lf 1018,3 hPa 0,0 l/m 0 min 0 min 86 W/m 12,6 km/h (3 Bft) 97,87 %
02.11.2016 09:46 7,6 C 8,9 C 6,7 C 97 % 14 lf 1018,4 hPa 0,0 l/m 0 min 0 min 96 W/m 10,5 km/h (2 Bft) 100,00 %
02.11.2016 09:48 7,6 C 8,9 C 6,7 C 97 % 13 lf 1018,3 hPa 0,0 l/m 0 min 0 min 132 W/m 14,6 km/h (3 Bft) 97,87 %
02.11.2016 09:50 7,6 C 9,4 C 6,7 C 97 % 12 lf 1018,3 hPa 0,0 l/m 2 min 0 min 167 W/m 10,5 km/h (2 Bft) 97,14 %
02.11.2016 09:52 7,7 C 10,0 C 7,2 C 97 % 11 lf 1018,4 hPa 0,0 l/m 2 min 0 min 173 W/m 8,4 km/h (2 Bft) 100,00 %
02.11.2016 09:54 7,7 C 10,0 C 7,2 C 97 % 10 lf 1018,3 hPa 0,0 l/m 0 min 0 min 134 W/m 14,6 km/h (3 Bft) 100,00 %
02.11.2016 09:56 7,8 C 10,0 C 7,2 C 97 % 7 lf 1018,3 hPa 0,0 l/m 0 min 0 min 128 W/m 10,5 km/h (2 Bft) 97,87 %
02.11.2016 09:58 7,8 C 10,0 C 7,2 C 97 % 4 lf 1018,3 hPa 0,0 l/m 0 min 0 min 110 W/m 14,6 km/h (3 Bft) 100,00 %
02.11.2016 10:00 7,8 C 9,4 C 7,2 C 97 % 3 lf 1018,3 hPa 0,0 l/m 0 min 0 min 100 W/m 12,6 km/h (3 Bft) 100,00 %
02.11.2016 10:02 7,9 C 9,4 C 7,2 C 97 % 2 lf 1018,3 hPa 0,0 l/m 0 min 0 min 97 W/m 18,8 km/h (3 Bft) 100,00 %
02.11.2016 10:04 7,9 C 9,4 C 7,2 C 97 % 1 lf 1018,3 hPa 0,0 l/m 0 min 0 min 102 W/m 12,6 km/h (3 Bft) 96,55 %
02.11.2016 10:06 7,9 C 9,4 C 7,2 C 97 % 0 lf 1018,4 hPa 0,0 l/m 0 min 0 min 104 W/m 16,7 km/h (3 Bft) 100,00 %
02.11.2016 10:08 7,9 C 8,9 C 7,2 C 97 % 1 lf 1018,3 hPa 0,0 l/m 0 min 0 min 96 W/m 16,7 km/h (3 Bft) 100,00 %
02.11.2016 10:10 8,0 C 8,9 C 7,2 C 96 % 0 lf 1018,4 hPa 0,0 l/m 0 min 0 min 86 W/m 23,0 km/h (4 Bft) 97,87 %
02.11.2016 10:12 8,0 C 8,9 C 7,2 C 96 % 0 lf 1018,5 hPa 0,0 l/m 0 min 0 min 92 W/m 18,8 km/h (3 Bft) 100,00 %
02.11.2016 10:14 8,0 C 8,9 C 7,2 C 96 % 3 lf 1018,4 hPa 0,0 l/m 0 min 0 min 97 W/m 25,1 km/h (4 Bft) 100,00 %
02.11.2016 10:16 8,0 C 8,9 C 7,2 C 96 % 6 lf 1018,5 hPa 0,0 l/m 0 min 2 min 119 W/m 16,7 km/h (3 Bft) 100,00 %
02.11.2016 10:18 8,0 C 8,9 C 7,2 C 96 % 3 lf 1018,4 hPa 0,0 l/m 0 min 2 min 127 W/m 18,8 km/h (3 Bft) 97,87 %
02.11.2016 10:20 8,1 C 8,9 C 7,2 C 96 % 2 lf 1018,5 hPa 0,0 l/m 0 min 0 min 121 W/m 12,6 km/h (3 Bft) 95,74 %
02.11.2016 10:22 8,1 C 8,9 C 7,2 C 96 % 1 lf 1018,4 hPa 0,0 l/m 0 min 0 min 129 W/m 18,8 km/h (3 Bft) 97,87 %
02.11.2016 10:24 8,1 C 8,9 C 7,2 C 96 % 0 lf 1018,5 hPa 0,0 l/m 0 min 0 min 146 W/m 16,7 km/h (3 Bft) 93,62 %
02.11.2016 10:26 8,1 C 9,4 C 7,8 C 96 % 0 lf 1018,3 hPa 0,0 l/m 0 min 0 min 153 W/m 14,6 km/h (3 Bft) 95,74 %
02.11.2016 10:28 8,2 C 10,0 C 7,8 C 96 % 0 lf 1018,4 hPa 0,0 l/m 0 min 0 min 162 W/m 10,5 km/h (2 Bft) 97,83 %
02.11.2016 10:30 8,2 C 9,4 C 7,8 C 96 % 0 lf 1018,3 hPa 0,0 l/m 0 min 0 min 162 W/m 20,9 km/h (4 Bft) 97,87 %
02.11.2016 10:32 8,2 C 10,0 C 7,8 C 96 % 0 lf 1018,4 hPa 0,0 l/m 0 min 0 min 153 W/m 16,7 km/h (3 Bft) 97,87 %
02.11.2016 10:34 8,3 C 10,0 C 7,8 C 96 % 1 lf 1018,3 hPa 0,0 l/m 0 min 0 min 137 W/m 16,7 km/h (3 Bft) 95,74 %
02.11.2016 10:36 8,3 C 10,6 C 7,8 C 96 % 0 lf 1018,4 hPa 0,0 l/m 0 min 0 min 130 W/m 10,5 km/h (2 Bft) 93,62 %
02.11.2016 10:38 8,3 C 10,6 C 7,8 C 96 % 0 lf 1018,4 hPa 0,0 l/m 0 min 0 min 124 W/m 14,6 km/h (3 Bft) 97,87 %
02.11.2016 10:40 8,4 C 10,6 C 7,8 C 96 % 0 lf 1018,4 hPa 0,0 l/m 0 min 0 min 127 W/m 14,6 km/h (3 Bft) 93,48 %
02.11.2016 10:42 8,4 C 10,6 C 7,8 C 96 % 0 lf 1018,5 hPa 0,0 l/m 0 min 0 min 133 W/m 14,6 km/h (3 Bft) 97,87 %
02.11.2016 10:44 8,4 C 10,6 C 7,8 C 96 % 0 lf 1018,5 hPa 0,0 l/m 0 min 0 min 145 W/m 10,5 km/h (2 Bft) 97,87 %
02.11.2016 10:46 8,4 C 10,6 C 7,8 C 96 % 0 lf 1018,5 hPa 0,0 l/m 0 min 0 min 135 W/m 14,6 km/h (3 Bft) 97,87 %
02.11.2016 10:48 8,4 C 10,6 C 7,8 C 96 % 0 lf 1018,5 hPa 0,0 l/m 0 min 0 min 130 W/m 12,6 km/h (3 Bft) 97,87 %
02.11.2016 10:50 8,5 C 11,1 C 7,8 C 96 % 0 lf 1018,5 hPa 0,0 l/m 0 min 0 min 154 W/m 8,4 km/h (2 Bft) 95,74 %
02.11.2016 10:52 8,5 C 11,1 C 7,8 C 96 % 0 lf 1018,4 hPa 0,0 l/m 0 min 0 min 148 W/m 8,4 km/h (2 Bft) 100,00 %
02.11.2016 10:54 8,6 C 11,1 C 7,8 C 95 % 0 lf 1018,4 hPa 0,0 l/m 0 min 0 min 150 W/m 16,7 km/h (3 Bft) 100,00 %
02.11.2016 10:56 8,6 C 11,1 C 8,3 C 95 % 0 lf 1018,5 hPa 0,0 l/m 0 min 0 min 170 W/m 14,6 km/h (3 Bft) 100,00 %
02.11.2016 10:58 8,6 C 11,1 C 8,3 C 95 % 0 lf 1018,5 hPa 0,0 l/m 0 min 0 min 133 W/m 14,6 km/h (3 Bft) 97,87 %
02.11.2016 11:00 8,6 C 11,7 C 8,3 C 95 % 0 lf 1018,5 hPa 0,0 l/m 0 min 0 min 151 W/m 12,6 km/h (3 Bft) 97,87 %
02.11.2016 11:02 8,7 C 12,2 C 8,3 C 95 % 0 lf 1018,5 hPa 0,0 l/m 2 min 0 min 187 W/m 10,5 km/h (2 Bft) 91,49 %
02.11.2016 11:04 8,7 C 12,2 C 8,3 C 95 % 0 lf 1018,5 hPa 0,0 l/m 2 min 0 min 234 W/m 16,7 km/h (3 Bft) 97,83 %
02.11.2016 11:06 8,7 C 11,1 C 8,3 C 95 % 0 lf 1018,6 hPa 0,0 l/m 0 min 0 min 109 W/m 23,0 km/h (4 Bft) 97,87 %
02.11.2016 11:08 8,7 C 10,6 C 8,3 C 95 % 0 lf 1018,5 hPa 0,0 l/m 0 min 0 min 140 W/m 16,7 km/h (3 Bft) 95,74 %
02.11.2016 11:10 8,7 C 10,6 C 8,3 C 94 % 0 lf 1018,5 hPa 0,0 l/m 0 min 0 min 174 W/m 14,6 km/h (3 Bft) 95,74 %
02.11.2016 11:12 8,7 C 10,6 C 8,3 C 94 % 0 lf 1018,4 hPa 0,0 l/m 0 min 0 min 185 W/m 18,8 km/h (3 Bft) 97,87 %
02.11.2016 11:14 8,7 C 11,1 C 8,3 C 94 % 0 lf 1018,3 hPa 0,0 l/m 0 min 0 min 167 W/m 16,7 km/h (3 Bft) 95,65 %
02.11.2016 11:16 8,7 C 11,1 C 8,3 C 94 % 0 lf 1018,3 hPa 0,0 l/m 0 min 0 min 161 W/m 12,6 km/h (3 Bft) 97,87 %
02.11.2016 11:18 8,8 C 11,7 C 8,3 C 94 % 0 lf 1018,2 hPa 0,0 l/m 0 min 0 min 191 W/m 18,8 km/h (3 Bft) 100,00 %
02.11.2016 11:20 8,8 C 13,9 C 8,3 C 93 % 0 lf 1018,2 hPa 0,0 l/m 2 min 0 min 243 W/m 12,6 km/h (3 Bft) 95,74 %
02.11.2016 11:22 8,8 C 14,4 C 8,3 C 93 % 0 lf 1018,2 hPa 0,0 l/m 2 min 0 min 308 W/m 18,8 km/h (3 Bft) 97,14 %
02.11.2016 11:24 8,9 C 15,0 C 8,3 C 93 % 0 lf 1018,3 hPa 0,0 l/m 2 min 0 min 400 W/m 14,6 km/h (3 Bft) 98,31 %
02.11.2016 11:26 9,0 C 16,7 C 8,3 C 93 % 0 lf 1018,3 hPa 0,0 l/m 2 min 0 min 445 W/m 14,6 km/h (3 Bft) 97,83 %
02.11.2016 11:28 9,1 C 15,6 C 8,3 C 92 % 0 lf 1018,2 hPa 0,0 l/m 2 min 0 min 418 W/m 25,1 km/h (4 Bft) 97,87 %
02.11.2016 11:30 9,1 C 16,1 C 8,3 C 92 % 0 lf 1018,3 hPa 0,0 l/m 2 min 0 min 411 W/m 23,0 km/h (4 Bft) 97,87 %
02.11.2016 11:32 9,2 C 15,6 C 8,3 C 92 % 0 lf 1018,3 hPa 0,0 l/m 2 min 0 min 348 W/m 16,7 km/h (3 Bft) 94,29 %
02.11.2016 11:34 9,3 C 14,4 C 8,3 C 91 % 0 lf 1018,2 hPa 0,0 l/m 2 min 0 min 258 W/m 20,9 km/h (4 Bft) 94,92 %
02.11.2016 11:36 9,3 C 14,4 C 8,3 C 91 % 0 lf 1018,2 hPa 0,0 l/m 2 min 0 min 376 W/m 23,0 km/h (4 Bft) 97,87 %
02.11.2016 11:38 9,4 C 13,9 C 8,9 C 91 % 0 lf 1018,3 hPa 0,0 l/m 2 min 0 min 413 W/m 12,6 km/h (3 Bft) 97,83 %
02.11.2016 11:40 9,5 C 13,9 C 8,9 C 91 % 0 lf 1018,2 hPa 0,0 l/m 2 min 0 min 441 W/m 23,0 km/h (4 Bft) 93,62 %
02.11.2016 11:42 9,6 C 14,4 C 9,4 C 90 % 0 lf 1018,1 hPa 0,0 l/m 2 min 0 min 501 W/m 20,9 km/h (4 Bft) 97,87 %
02.11.2016 11:44 9,7 C 15,0 C 9,4 C 90 % 0 lf 1018,1 hPa 0,0 l/m 2 min 0 min 499 W/m 20,9 km/h (4 Bft) 97,87 %
02.11.2016 11:46 9,7 C 14,4 C 8,9 C 90 % 0 lf 1018,1 hPa 0,0 l/m 2 min 0 min 486 W/m 23,0 km/h (4 Bft) 93,62 %
02.11.2016 11:48 9,8 C 14,4 C 8,9 C 90 % 0 lf 1018,1 hPa 0,0 l/m 2 min 0 min 242 W/m 25,1 km/h (4 Bft) 95,74 %
02.11.2016 11:50 9,8 C 13,9 C 8,9 C 89 % 0 lf 1018,2 hPa 0,0 l/m 2 min 0 min 436 W/m 27,2 km/h (4 Bft) 97,83 %
02.11.2016 11:52 9,9 C 15,0 C 8,9 C 88 % 0 lf 1018,1 hPa 0,0 l/m 2 min 0 min 516 W/m 18,8 km/h (3 Bft) 95,74 %
02.11.2016 11:54 9,9 C 14,4 C 8,9 C 88 % 0 lf 1018,1 hPa 0,0 l/m 2 min 0 min 455 W/m 23,0 km/h (4 Bft) 93,62 %
02.11.2016 11:56 9,9 C 15,6 C 9,4 C 88 % 0 lf 1018,1 hPa 0,0 l/m 2 min 0 min 497 W/m 23,0 km/h (4 Bft) 95,74 %
02.11.2016 11:58 10,0 C 15,0 C 9,4 C 88 % 0 lf 1018,1 hPa 0,0 l/m 2 min 0 min 536 W/m 20,9 km/h (4 Bft) 95,74 %
02.11.2016 12:00 10,0 C 13,3 C 9,4 C 87 % 0 lf 1018,1 hPa 0,0 l/m 2 min 0 min 336 W/m 29,3 km/h (5 Bft) 97,87 %
02.11.2016 12:02 10,0 C 13,9 C 9,4 C 87 % 0 lf 1018,1 hPa 0,0 l/m 2 min 0 min 304 W/m 18,8 km/h (3 Bft) 95,65 %
02.11.2016 12:06 10,0 C 12,8 C 8,9 C 87 % 0 lf 1018,0 hPa 0,0 l/m 2 min 0 min 269 W/m 23,0 km/h (4 Bft) 95,18 %
02.11.2016 12:08 10,0 C 12,2 C 8,9 C 86 % 0 lf 1018,0 hPa 0,0 l/m 2 min 0 min 442 W/m 18,8 km/h (3 Bft) 97,87 %
02.11.2016 12:10 10,0 C 12,2 C 8,9 C 86 % 0 lf 1018,0 hPa 0,0 l/m 2 min 0 min 464 W/m 14,6 km/h (3 Bft) 95,74 %
02.11.2016 12:12 10,0 C 12,2 C 8,9 C 86 % 0 lf 1018,0 hPa 0,0 l/m 2 min 0 min 210 W/m 20,9 km/h (4 Bft) 93,62 %
02.11.2016 12:14 10,0 C 12,2 C 8,9 C 86 % 0 lf 1018,0 hPa 0,0 l/m 2 min 0 min 251 W/m 12,6 km/h (3 Bft) 93,62 %
02.11.2016 12:16 10,0 C 12,2 C 8,9 C 86 % 0 lf 1018,0 hPa 0,0 l/m 2 min 0 min 268 W/m 8,4 km/h (2 Bft) 91,30 %
02.11.2016 12:18 10,0 C 12,2 C 8,9 C 86 % 0 lf 1018,0 hPa 0,0 l/m 2 min 0 min 248 W/m 10,5 km/h (2 Bft) 93,62 %
02.11.2016 12:20 9,9 C 11,7 C 8,9 C 86 % 0 lf 1018,0 hPa 0,0 l/m 0 min 0 min 186 W/m 16,7 km/h (3 Bft) 93,62 %
02.11.2016 12:22 9,9 C 11,1 C 8,9 C 85 % 0 lf 1018,0 hPa 0,0 l/m 0 min 0 min 175 W/m 27,2 km/h (4 Bft) 93,62 %
02.11.2016 12:24 9,9 C 11,1 C 8,9 C 85 % 0 lf 1018,0 hPa 0,0 l/m 2 min 0 min 218 W/m 12,6 km/h (3 Bft) 93,62 %
02.11.2016 12:26 9,9 C 11,1 C 8,9 C 85 % 0 lf 1017,9 hPa 0,0 l/m 2 min 0 min 236 W/m 14,6 km/h (3 Bft) 93,62 %
02.11.2016 12:28 9,9 C 11,1 C 8,9 C 85 % 0 lf 1018,0 hPa 0,0 l/m 2 min 0 min 248 W/m 18,8 km/h (3 Bft) 93,62 %
02.11.2016 12:30 9,9 C 11,7 C 9,4 C 85 % 0 lf 1017,9 hPa 0,0 l/m 2 min 0 min 300 W/m 14,6 km/h (3 Bft) 91,30 %
02.11.2016 12:32 9,9 C 11,7 C 10,0 C 85 % 0 lf 1017,9 hPa 0,0 l/m 2 min 0 min 279 W/m 12,6 km/h (3 Bft) 93,62 %
02.11.2016 12:34 9,9 C 11,7 C 10,0 C 86 % 0 lf 1017,9 hPa 0,0 l/m 2 min 0 min 238 W/m 16,7 km/h (3 Bft) 91,49 %
02.11.2016 12:36 9,9 C 11,7 C 9,4 C 85 % 0 lf 1017,9 hPa 0,0 l/m 2 min 0 min 203 W/m 29,3 km/h (5 Bft) 95,74 %
02.11.2016 12:38 9,8 C 11,1 C 9,4 C 85 % 0 lf 1017,9 hPa 0,0 l/m 2 min 0 min 210 W/m 25,1 km/h (4 Bft) 91,49 %
02.11.2016 12:40 9,8 C 11,1 C 9,4 C 84 % 0 lf 1017,9 hPa 0,0 l/m 2 min 0 min 224 W/m 23,0 km/h (4 Bft) 93,48 %
02.11.2016 12:42 9,8 C 11,1 C 9,4 C 84 % 0 lf 1017,9 hPa 0,0 l/m 2 min 0 min 218 W/m 20,9 km/h (4 Bft) 95,74 %
02.11.2016 12:44 9,8 C 11,1 C 9,4 C 84 % 0 lf 1017,9 hPa 0,0 l/m 2 min 0 min 213 W/m 18,8 km/h (3 Bft) 93,62 %
02.11.2016 12:46 9,9 C 11,1 C 9,4 C 84 % 0 lf 1017,9 hPa 0,0 l/m 0 min 0 min 197 W/m 16,7 km/h (3 Bft) 95,74 %
02.11.2016 12:48 9,9 C 11,1 C 9,4 C 84 % 0 lf 1017,8 hPa 0,0 l/m 2 min 0 min 202 W/m 23,0 km/h (4 Bft) 93,62 %
02.11.2016 12:50 9,9 C 11,1 C 9,4 C 84 % 0 lf 1017,8 hPa 0,0 l/m 2 min 0 min 205 W/m 23,0 km/h (4 Bft) 91,49 %
02.11.2016 12:52 9,9 C 11,1 C 9,4 C 84 % 0 lf 1017,8 hPa 0,0 l/m 2 min 0 min 204 W/m 16,7 km/h (3 Bft) 89,13 %
02.11.2016 12:54 9,8 C 11,1 C 9,4 C 83 % 0 lf 1017,8 hPa 0,0 l/m 2 min 0 min 199 W/m 25,1 km/h (4 Bft) 95,74 %
02.11.2016 12:56 9,8 C 11,1 C 9,4 C 83 % 0 lf 1017,8 hPa 0,0 l/m 0 min 0 min 177 W/m 14,6 km/h (3 Bft) 95,74 %
02.11.2016 12:58 9,8 C 10,6 C 9,4 C 83 % 1 lf 1017,8 hPa 0,0 l/m 0 min 0 min 162 W/m 18,8 km/h (3 Bft) 95,74 %
02.11.2016 13:00 9,8 C 10,6 C 9,4 C 82 % 1 lf 1017,9 hPa 0,0 l/m 0 min 0 min 155 W/m 14,6 km/h (3 Bft) 95,74 %
02.11.2016 13:02 9,8 C 10,6 C 9,4 C 83 % 0 lf 1017,9 hPa 0,0 l/m 0 min 0 min 184 W/m 23,0 km/h (4 Bft) 93,62 %
02.11.2016 13:04 9,8 C 10,6 C 8,9 C 83 % 15 lf 1017,9 hPa 0,0 l/m 2 min 2 min 218 W/m 18,8 km/h (3 Bft) 100,00 %
02.11.2016 13:06 9,9 C 10,6 C 8,9 C 83 % 15 lf 1017,9 hPa 0,0 l/m 2 min 2 min 271 W/m 29,3 km/h (5 Bft) 97,87 %
02.11.2016 13:08 9,8 C 11,1 C 8,3 C 84 % 15 lf 1017,9 hPa 0,0 l/m 2 min 2 min 267 W/m 25,1 km/h (4 Bft) 100,00 %
02.11.2016 13:10 9,8 C 12,8 C 8,3 C 84 % 15 lf 1017,9 hPa 0,0 l/m 2 min 2 min 428 W/m 25,1 km/h (4 Bft) 100,00 %
02.11.2016 13:12 9,9 C 14,4 C 8,3 C 84 % 15 lf 1017,9 hPa 0,0 l/m 2 min 0 min 520 W/m 20,9 km/h (4 Bft) 97,87 %
02.11.2016 13:14 9,9 C 15,6 C 8,3 C 84 % 15 lf 1017,9 hPa 0,0 l/m 2 min 0 min 455 W/m 12,6 km/h (3 Bft) 100,00 %
02.11.2016 13:16 10,0 C 15,6 C 8,3 C 85 % 15 lf 1017,9 hPa 0,0 l/m 2 min 0 min 473 W/m 14,6 km/h (3 Bft) 97,83 %
02.11.2016 13:18 10,1 C 15,0 C 8,3 C 84 % 15 lf 1017,9 hPa 0,0 l/m 2 min 0 min 452 W/m 16,7 km/h (3 Bft) 97,87 %
02.11.2016 13:20 10,1 C 15,0 C 8,3 C 84 % 12 lf 1017,8 hPa 0,0 l/m 2 min 0 min 466 W/m 12,6 km/h (3 Bft) 97,87 %
02.11.2016 13:22 10,2 C 14,4 C 8,3 C 84 % 4 lf 1017,8 hPa 0,0 l/m 2 min 0 min 462 W/m 18,8 km/h (3 Bft) 93,62 %
02.11.2016 13:24 10,3 C 14,4 C 8,3 C 84 % 2 lf 1017,8 hPa 0,0 l/m 2 min 0 min 435 W/m 18,8 km/h (3 Bft) 100,00 %
02.11.2016 13:26 10,3 C 15,0 C 8,9 C 84 % 0 lf 1017,8 hPa 0,0 l/m 2 min 0 min 441 W/m 16,7 km/h (3 Bft) 100,00 %
02.11.2016 13:28 10,4 C 16,1 C 8,9 C 83 % 0 lf 1017,8 hPa 0,0 l/m 2 min 0 min 437 W/m 23,0 km/h (4 Bft) 100,00 %
02.11.2016 13:30 10,5 C 17,2 C 8,9 C 83 % 0 lf 1017,7 hPa 0,0 l/m 2 min 0 min 441 W/m 12,6 km/h (3 Bft) 100,00 %
02.11.2016 13:32 10,6 C 17,8 C 9,4 C 83 % 0 lf 1017,7 hPa 0,0 l/m 2 min 0 min 448 W/m 20,9 km/h (4 Bft) 100,00 %
02.11.2016 13:34 10,7 C 18,3 C 9,4 C 83 % 0 lf 1017,7 hPa 0,0 l/m 2 min 0 min 453 W/m 12,6 km/h (3 Bft) 100,00 %
02.11.2016 13:36 10,8 C 18,3 C 10,0 C 83 % 0 lf 1017,8 hPa 0,0 l/m 2 min 0 min 441 W/m 18,8 km/h (3 Bft) 97,87 %
02.11.2016 13:38 10,9 C 18,9 C 10,0 C 82 % 0 lf 1017,8 hPa 0,0 l/m 2 min 0 min 478 W/m 25,1 km/h (4 Bft) 100,00 %
02.11.2016 13:40 10,9 C 19,4 C 10,6 C 82 % 0 lf 1017,7 hPa 0,0 l/m 2 min 0 min 502 W/m 16,7 km/h (3 Bft) 100,00 %
02.11.2016 13:42 11,1 C 19,4 C 10,6 C 82 % 0 lf 1017,8 hPa 0,0 l/m 2 min 0 min 488 W/m 20,9 km/h (4 Bft) 97,87 %
02.11.2016 13:44 11,2 C 19,4 C 10,6 C 81 % 0 lf 1017,7 hPa 0,0 l/m 2 min 0 min 508 W/m 18,8 km/h (3 Bft) 100,00 %
02.11.2016 13:46 11,2 C 18,3 C 10,6 C 80 % 0 lf 1017,7 hPa 0,0 l/m 2 min 0 min 362 W/m 23,0 km/h (4 Bft) 95,74 %
02.11.2016 13:48 11,3 C 18,3 C 11,1 C 80 % 0 lf 1017,8 hPa 0,0 l/m 2 min 0 min 387 W/m 14,6 km/h (3 Bft) 97,87 %
02.11.2016 13:50 11,3 C 17,2 C 11,1 C 80 % 0 lf 1017,8 hPa 0,0 l/m 2 min 0 min 430 W/m 20,9 km/h (4 Bft) 100,00 %
02.11.2016 13:52 11,3 C 15,6 C 10,6 C 79 % 0 lf 1017,7 hPa 0,0 l/m 2 min 0 min 432 W/m 25,1 km/h (4 Bft) 97,87 %
02.11.2016 13:54 11,3 C 13,9 C 10,6 C 79 % 0 lf 1017,8 hPa 0,0 l/m 2 min 0 min 410 W/m 18,8 km/h (3 Bft) 97,87 %
02.11.2016 13:56 11,3 C 13,3 C 10,6 C 79 % 0 lf 1017,7 hPa 0,0 l/m 2 min 0 min 408 W/m 16,7 km/h (3 Bft) 95,74 %
02.11.2016 13:58 11,3 C 12,8 C 10,0 C 79 % 0 lf 1017,7 hPa 0,0 l/m 2 min 0 min 400 W/m 14,6 km/h (3 Bft) 100,00 %
02.11.2016 14:00 11,2 C 12,2 C 10,0 C 79 % 0 lf 1017,7 hPa 0,0 l/m 2 min 0 min 398 W/m 16,7 km/h (3 Bft) 100,00 %
02.11.2016 14:02 11,1 C 11,7 C 10,0 C 78 % 0 lf 1017,7 hPa 0,0 l/m 2 min 0 min 397 W/m 10,5 km/h (2 Bft) 95,65 %
02.11.2016 14:04 11,1 C 11,7 C 10,0 C 79 % 0 lf 1017,7 hPa 0,0 l/m 2 min 0 min 390 W/m 18,8 km/h (3 Bft) 95,74 %
02.11.2016 14:06 11,0 C 11,7 C 9,4 C 79 % 0 lf 1017,7 hPa 0,0 l/m 2 min 0 min 367 W/m 14,6 km/h (3 Bft) 100,00 %
02.11.2016 14:08 10,9 C 11,1 C 9,4 C 79 % 0 lf 1017,7 hPa 0,0 l/m 2 min 0 min 340 W/m 14,6 km/h (3 Bft) 100,00 %
02.11.2016 14:10 10,9 C 10,6 C 8,9 C 79 % 1 lf 1017,7 hPa 0,0 l/m 2 min 2 min 327 W/m 14,6 km/h (3 Bft) 100,00 %
02.11.2016 14:12 10,8 C 10,6 C 8,9 C 79 % 1 lf 1017,7 hPa 0,0 l/m 2 min 2 min 332 W/m 18,8 km/h (3 Bft) 100,00 %
02.11.2016 14:14 10,8 C 10,6 C 8,9 C 79 % 0 lf 1017,7 hPa 0,0 l/m 2 min 0 min 348 W/m 10,5 km/h (2 Bft) 97,83 %
02.11.2016 14:16 10,7 C 10,6 C 8,3 C 79 % 0 lf 1017,6 hPa 0,0 l/m 2 min 0 min 372 W/m 12,6 km/h (3 Bft) 100,00 %
02.11.2016 14:18 10,6 C 11,1 C 8,3 C 80 % 0 lf 1017,6 hPa 0,0 l/m 2 min 0 min 384 W/m 16,7 km/h (3 Bft) 95,74 %
02.11.2016 14:20 10,6 C 11,1 C 8,9 C 80 % 0 lf 1017,7 hPa 0,0 l/m 2 min 0 min 404 W/m 18,8 km/h (3 Bft) 97,87 %
02.11.2016 14:22 10,5 C 11,7 C 8,9 C 80 % 0 lf 1017,7 hPa 0,0 l/m 2 min 0 min 402 W/m 14,6 km/h (3 Bft) 95,74 %
02.11.2016 14:24 10,4 C 11,1 C 8,3 C 80 % 0 lf 1017,7 hPa 0,0 l/m 2 min 0 min 370 W/m 18,8 km/h (3 Bft) 97,87 %
02.11.2016 14:26 10,3 C 10,6 C 8,3 C 80 % 0 lf 1017,7 hPa 0,0 l/m 2 min 0 min 368 W/m 14,6 km/h (3 Bft) 95,65 %
02.11.2016 14:28 10,3 C 11,1 C 8,3 C 80 % 0 lf 1017,6 hPa 0,0 l/m 2 min 0 min 387 W/m 16,7 km/h (3 Bft) 97,87 %
02.11.2016 14:30 10,2 C 12,8 C 8,9 C 80 % 0 lf 1017,7 hPa 0,0 l/m 2 min 0 min 421 W/m 14,6 km/h (3 Bft) 95,74 %
02.11.2016 14:32 10,2 C 13,9 C 8,9 C 80 % 0 lf 1017,6 hPa 0,0 l/m 2 min 0 min 563 W/m 14,6 km/h (3 Bft) 95,74 %
02.11.2016 14:34 10,2 C 13,3 C 8,9 C 80 % 0 lf 1017,7 hPa 0,0 l/m 2 min 0 min 420 W/m 12,6 km/h (3 Bft) 97,87 %
02.11.2016 14:36 10,2 C 13,3 C 8,9 C 80 % 0 lf 1017,6 hPa 0,0 l/m 2 min 0 min 372 W/m 14,6 km/h (3 Bft) 97,87 %
02.11.2016 14:38 10,2 C 12,8 C 8,9 C 80 % 0 lf 1017,6 hPa 0,0 l/m 2 min 0 min 370 W/m 12,6 km/h (3 Bft) 93,48 %
02.11.2016 14:40 10,2 C 12,2 C 8,3 C 80 % 0 lf 1017,7 hPa 0,0 l/m 2 min 0 min 367 W/m 18,8 km/h (3 Bft) 93,62 %
02.11.2016 14:42 10,2 C 11,7 C 8,3 C 80 % 0 lf 1017,7 hPa 0,0 l/m 2 min 0 min 367 W/m 27,2 km/h (4 Bft) 95,74 %
02.11.2016 14:44 10,1 C 11,7 C 8,3 C 80 % 0 lf 1017,7 hPa 0,0 l/m 2 min 0 min 378 W/m 18,8 km/h (3 Bft) 91,49 %
02.11.2016 14:46 10,1 C 11,7 C 8,3 C 80 % 0 lf 1017,7 hPa 0,0 l/m 2 min 0 min 377 W/m 20,9 km/h (4 Bft) 97,87 %
02.11.2016 14:48 10,1 C 13,9 C 8,9 C 79 % 0 lf 1017,7 hPa 0,0 l/m 2 min 0 min 449 W/m 12,6 km/h (3 Bft) 95,74 %
02.11.2016 14:50 10,1 C 13,9 C 8,9 C 80 % 0 lf 1017,8 hPa 0,0 l/m 2 min 0 min 455 W/m 20,9 km/h (4 Bft) 95,65 %
02.11.2016 14:52 10,1 C 15,0 C 8,9 C 79 % 0 lf 1017,7 hPa 0,0 l/m 2 min 0 min 367 W/m 25,1 km/h (4 Bft) 91,49 %
02.11.2016 14:54 10,2 C 16,1 C 8,9 C 79 % 0 lf 1017,7 hPa 0,0 l/m 2 min 0 min 479 W/m 20,9 km/h (4 Bft) 93,62 %
02.11.2016 14:56 10,2 C 17,2 C 8,9 C 79 % 0 lf 1017,7 hPa 0,0 l/m 2 min 0 min 486 W/m 16,7 km/h (3 Bft) 89,36 %
02.11.2016 14:58 10,2 C 17,8 C 8,9 C 79 % 0 lf 1017,8 hPa 0,0 l/m 2 min 0 min 488 W/m 14,6 km/h (3 Bft) 93,62 %
02.11.2016 15:00 10,3 C 18,9 C 8,9 C 79 % 0 lf 1017,7 hPa 0,0 l/m 2 min 0 min 488 W/m 12,6 km/h (3 Bft) 89,13 %
02.11.2016 15:02 10,3 C 18,9 C 8,9 C 79 % 0 lf 1017,7 hPa 0,0 l/m 2 min 0 min 476 W/m 10,5 km/h (2 Bft) 93,62 %
02.11.2016 15:04 10,4 C 18,9 C 8,9 C 78 % 0 lf 1017,7 hPa 0,0 l/m 2 min 0 min 474 W/m 12,6 km/h (3 Bft) 89,36 %
02.11.2016 15:06 10,4 C 18,3 C 8,9 C 78 % 0 lf 1017,7 hPa 0,0 l/m 2 min 0 min 469 W/m 20,9 km/h (4 Bft) 95,74 %
02.11.2016 15:08 10,5 C 17,8 C 8,9 C 77 % 0 lf 1017,7 hPa 0,0 l/m 2 min 0 min 466 W/m 20,9 km/h (4 Bft) 91,49 %
02.11.2016 15:10 10,6 C 17,2 C 8,9 C 77 % 0 lf 1017,7 hPa 0,0 l/m 2 min 0 min 463 W/m 23,0 km/h (4 Bft) 93,62 %
02.11.2016 15:12 10,6 C 17,8 C 8,9 C 76 % 0 lf 1017,8 hPa 0,0 l/m 2 min 0 min 460 W/m 14,6 km/h (3 Bft) 89,13 %
02.11.2016 15:14 10,6 C 16,1 C 8,9 C 76 % 0 lf 1017,8 hPa 0,0 l/m 2 min 0 min 466 W/m 25,1 km/h (4 Bft) 93,62 %
02.11.2016 15:16 10,6 C 15,6 C 8,9 C 76 % 0 lf 1017,8 hPa 0,0 l/m 2 min 0 min 448 W/m 27,2 km/h (4 Bft) 91,49 %
02.11.2016 15:18 10,6 C 13,3 C 8,9 C 75 % 0 lf 1017,8 hPa 0,0 l/m 2 min 0 min 357 W/m 23,0 km/h (4 Bft) 93,62 %
02.11.2016 15:20 10,6 C 12,2 C 8,3 C 75 % 0 lf 1017,8 hPa 0,0 l/m 2 min 0 min 343 W/m 16,7 km/h (3 Bft) 93,62 %
02.11.2016 15:22 10,6 C 11,7 C 8,3 C 75 % 0 lf 1017,8 hPa 0,0 l/m 2 min 0 min 337 W/m 12,6 km/h (3 Bft) 93,62 %
02.11.2016 15:24 10,5 C 11,1 C 8,3 C 75 % 0 lf 1017,8 hPa 0,0 l/m 2 min 0 min 351 W/m 20,9 km/h (4 Bft) 95,65 %
02.11.2016 15:26 10,4 C 10,6 C 7,8 C 75 % 0 lf 1017,8 hPa 0,0 l/m 2 min 0 min 349 W/m 16,7 km/h (3 Bft) 95,74 %
02.11.2016 15:28 10,4 C 10,6 C 7,8 C 76 % 0 lf 1017,8 hPa 0,0 l/m 2 min 0 min 357 W/m 14,6 km/h (3 Bft) 93,62 %
02.11.2016 15:30 10,4 C 10,6 C 7,8 C 76 % 0 lf 1017,9 hPa 0,0 l/m 2 min 0 min 384 W/m 16,7 km/h (3 Bft) 91,49 %
02.11.2016 15:32 10,3 C 10,6 C 7,8 C 76 % 0 lf 1017,9 hPa 0,0 l/m 2 min 0 min 458 W/m 16,7 km/h (3 Bft) 95,74 %
02.11.2016 15:34 10,2 C 10,6 C 8,3 C 77 % 0 lf 1017,9 hPa 0,0 l/m 2 min 0 min 450 W/m 12,6 km/h (3 Bft) 95,74 %
02.11.2016 15:36 10,2 C 10,6 C 8,3 C 77 % 0 lf 1017,9 hPa 0,0 l/m 2 min 0 min 433 W/m 23,0 km/h (4 Bft) 95,65 %
02.11.2016 15:38 10,2 C 10,6 C 8,3 C 77 % 0 lf 1018,0 hPa 0,0 l/m 2 min 0 min 438 W/m 20,9 km/h (4 Bft) 95,74 %
02.11.2016 15:40 10,1 C 10,6 C 8,3 C 78 % 0 lf 1017,9 hPa 0,0 l/m 2 min 0 min 437 W/m 16,7 km/h (3 Bft) 93,62 %
02.11.2016 15:42 10,1 C 10,6 C 8,3 C 78 % 0 lf 1017,9 hPa 0,0 l/m 2 min 0 min 394 W/m 14,6 km/h (3 Bft) 97,87 %
02.11.2016 15:44 10,1 C 10,6 C 8,3 C 78 % 0 lf 1017,9 hPa 0,0 l/m 2 min 0 min 372 W/m 16,7 km/h (3 Bft) 97,87 %
02.11.2016 15:46 10,0 C 10,0 C 8,3 C 78 % 0 lf 1017,8 hPa 0,0 l/m 2 min 0 min 398 W/m 12,6 km/h (3 Bft) 97,87 %
02.11.2016 15:48 9,9 C 10,0 C 7,8 C 78 % 0 lf 1017,8 hPa 0,0 l/m 2 min 0 min 396 W/m 16,7 km/h (3 Bft) 91,30 %
02.11.2016 15:50 9,9 C 10,0 C 7,8 C 78 % 0 lf 1017,8 hPa 0,0 l/m 2 min 0 min 397 W/m 16,7 km/h (3 Bft) 97,87 %
02.11.2016 15:52 9,8 C 10,0 C 7,8 C 78 % 0 lf 1017,8 hPa 0,0 l/m 2 min 0 min 395 W/m 14,6 km/h (3 Bft) 95,74 %
02.11.2016 15:54 9,8 C 10,0 C 7,8 C 78 % 0 lf 1017,8 hPa 0,0 l/m 2 min 0 min 402 W/m 16,7 km/h (3 Bft) 97,87 %
02.11.2016 15:56 9,8 C 10,0 C 7,8 C 78 % 0 lf 1017,8 hPa 0,0 l/m 2 min 0 min 387 W/m 20,9 km/h (4 Bft) 95,74 %
02.11.2016 15:58 9,7 C 10,0 C 7,8 C 79 % 0 lf 1017,8 hPa 0,0 l/m 2 min 0 min 370 W/m 18,8 km/h (3 Bft) 95,74 %
02.11.2016 16:00 9,7 C 10,0 C 7,8 C 79 % 0 lf 1017,8 hPa 0,0 l/m 2 min 0 min 366 W/m 23,0 km/h (4 Bft) 100,00 %
02.11.2016 16:02 9,7 C 9,4 C 7,8 C 79 % 0 lf 1017,8 hPa 0,0 l/m 2 min 0 min 359 W/m 27,2 km/h (4 Bft) 100,00 %
02.11.2016 16:04 9,6 C 9,4 C 7,8 C 79 % 0 lf 1017,8 hPa 0,0 l/m 2 min 0 min 348 W/m 20,9 km/h (4 Bft) 100,00 %
02.11.2016 16:06 9,6 C 9,4 C 7,2 C 79 % 0 lf 1017,8 hPa 0,0 l/m 2 min 0 min 347 W/m 20,9 km/h (4 Bft) 100,00 %
02.11.2016 16:08 9,5 C 9,4 C 7,2 C 79 % 0 lf 1017,8 hPa 0,0 l/m 2 min 0 min 348 W/m 16,7 km/h (3 Bft) 97,87 %
02.11.2016 16:10 9,4 C 8,9 C 7,2 C 80 % 0 lf 1017,9 hPa 0,0 l/m 2 min 0 min 332 W/m 20,9 km/h (4 Bft) 100,00 %
02.11.2016 16:12 9,4 C 8,9 C 7,2 C 80 % 0 lf 1017,8 hPa 0,0 l/m 2 min 0 min 342 W/m 16,7 km/h (3 Bft) 100,00 %
02.11.2016 16:14 9,3 C 8,9 C 7,2 C 80 % 0 lf 1017,8 hPa 0,0 l/m 2 min 0 min 345 W/m 25,1 km/h (4 Bft) 100,00 %
02.11.2016 16:16 9,3 C 8,9 C 7,2 C 80 % 0 lf 1017,8 hPa 0,0 l/m 2 min 0 min 349 W/m 14,6 km/h (3 Bft) 97,87 %
02.11.2016 16:18 9,3 C 8,9 C 6,7 C 80 % 0 lf 1017,8 hPa 0,0 l/m 2 min 0 min 344 W/m 8,4 km/h (2 Bft) 100,00 %
02.11.2016 16:20 9,2 C 8,9 C 6,7 C 81 % 0 lf 1017,8 hPa 0,0 l/m 2 min 0 min 341 W/m 12,6 km/h (3 Bft) 97,87 %
02.11.2016 16:22 9,2 C 8,3 C 6,7 C 81 % 0 lf 1017,9 hPa 0,0 l/m 2 min 0 min 329 W/m 14,6 km/h (3 Bft) 100,00 %
02.11.2016 16:24 9,1 C 8,3 C 6,7 C 81 % 0 lf 1017,8 hPa 0,0 l/m 2 min 0 min 341 W/m 8,4 km/h (2 Bft) 100,00 %
02.11.2016 16:26 9,1 C 8,3 C 6,7 C 81 % 0 lf 1017,8 hPa 0,0 l/m 2 min 0 min 342 W/m 12,6 km/h (3 Bft) 100,00 %
02.11.2016 16:28 9,1 C 8,3 C 6,7 C 81 % 0 lf 1017,8 hPa 0,0 l/m 2 min 0 min 336 W/m 10,5 km/h (2 Bft) 97,87 %
02.11.2016 16:30 9,0 C 8,3 C 6,7 C 82 % 1 lf 1017,8 hPa 0,0 l/m 2 min 2 min 330 W/m 12,6 km/h (3 Bft) 100,00 %
02.11.2016 16:32 9,0 C 8,3 C 6,7 C 82 % 0 lf 1017,9 hPa 0,0 l/m 2 min 0 min 330 W/m 20,9 km/h (4 Bft) 100,00 %
02.11.2016 16:34 8,9 C 8,3 C 7,2 C 82 % 0 lf 1017,8 hPa 0,0 l/m 2 min 0 min 333 W/m 16,7 km/h (3 Bft) 100,00 %
02.11.2016 16:36 8,9 C 8,9 C 7,2 C 83 % 0 lf 1017,9 hPa 0,0 l/m 2 min 0 min 340 W/m 14,6 km/h (3 Bft) 100,00 %
02.11.2016 16:38 8,9 C 8,9 C 7,2 C 83 % 0 lf 1017,9 hPa 0,0 l/m 2 min 0 min 332 W/m 10,5 km/h (2 Bft) 93,62 %
02.11.2016 16:40 8,8 C 8,9 C 7,2 C 83 % 0 lf 1017,9 hPa 0,0 l/m 2 min 0 min 322 W/m 16,7 km/h (3 Bft) 100,00 %
02.11.2016 16:42 8,8 C 8,9 C 7,2 C 83 % 0 lf 1017,9 hPa 0,0 l/m 2 min 0 min 314 W/m 14,6 km/h (3 Bft) 97,87 %
02.11.2016 16:44 8,8 C 8,9 C 7,2 C 84 % 0 lf 1018,0 hPa 0,0 l/m 2 min 0 min 313 W/m 16,7 km/h (3 Bft) 97,87 %
02.11.2016 16:46 8,8 C 8,3 C 7,2 C 84 % 0 lf 1017,9 hPa 0,0 l/m 2 min 0 min 145 W/m 10,5 km/h (2 Bft) 100,00 %
02.11.2016 16:48 8,7 C 8,3 C 7,2 C 84 % 0 lf 1017,9 hPa 0,0 l/m 0 min 0 min 14 W/m 16,7 km/h (3 Bft) 97,87 %
02.11.2016 16:50 8,7 C 8,3 C 7,2 C 85 % 0 lf 1017,9 hPa 0,0 l/m 0 min 0 min 14 W/m 14,6 km/h (3 Bft) 100,00 %
02.11.2016 16:52 8,7 C 8,3 C 7,2 C 85 % 0 lf 1018,0 hPa 0,0 l/m 0 min 0 min 12 W/m 18,8 km/h (3 Bft) 100,00 %
02.11.2016 16:54 8,7 C 8,3 C 7,2 C 85 % 0 lf 1018,0 hPa 0,0 l/m 0 min 0 min 11 W/m 18,8 km/h (3 Bft) 100,00 %
02.11.2016 16:56 8,7 C 8,3 C 7,2 C 85 % 0 lf 1017,9 hPa 0,0 l/m 0 min 0 min 11 W/m 16,7 km/h (3 Bft) 100,00 %
02.11.2016 16:58 8,7 C 8,3 C 6,7 C 86 % 0 lf 1018,0 hPa 0,0 l/m 0 min 0 min 9 W/m 12,6 km/h (3 Bft) 97,83 %
02.11.2016 17:00 8,6 C 8,3 C 6,7 C 86 % 0 lf 1018,0 hPa 0,0 l/m 0 min 0 min 9 W/m 18,8 km/h (3 Bft) 97,87 %
02.11.2016 17:02 8,6 C 8,3 C 6,7 C 86 % 0 lf 1018,0 hPa 0,0 l/m 0 min 0 min 9 W/m 20,9 km/h (4 Bft) 93,62 %
02.11.2016 17:04 8,6 C 7,8 C 6,7 C 86 % 0 lf 1018,0 hPa 0,0 l/m 0 min 0 min 7 W/m 14,6 km/h (3 Bft) 97,87 %
02.11.2016 17:06 8,5 C 7,8 C 6,7 C 86 % 0 lf 1018,0 hPa 0,0 l/m 0 min 0 min 7 W/m 16,7 km/h (3 Bft) 97,87 %
02.11.2016 17:08 8,4 C 7,8 C 6,7 C 86 % 0 lf 1018,1 hPa 0,0 l/m 0 min 0 min 7 W/m 20,9 km/h (4 Bft) 97,87 %
02.11.2016 17:10 8,4 C 7,8 C 6,7 C 87 % 0 lf 1018,0 hPa 0,0 l/m 0 min 0 min 7 W/m 18,8 km/h (3 Bft) 95,65 %
02.11.2016 17:12 8,4 C 7,8 C 6,7 C 87 % 0 lf 1018,1 hPa 0,0 l/m 0 min 0 min 5 W/m 14,6 km/h (3 Bft) 95,74 %
02.11.2016 17:14 8,3 C 7,8 C 6,7 C 87 % 0 lf 1018,1 hPa 0,0 l/m 0 min 0 min 5 W/m 14,6 km/h (3 Bft) 97,87 %
02.11.2016 17:16 8,3 C 7,8 C 6,7 C 87 % 0 lf 1018,2 hPa 0,0 l/m 0 min 0 min 4 W/m 16,7 km/h (3 Bft) 97,87 %
02.11.2016 17:18 8,3 C 7,8 C 6,7 C 87 % 0 lf 1018,2 hPa 0,0 l/m 0 min 0 min 0 W/m 14,6 km/h (3 Bft) 95,74 %
02.11.2016 17:20 8,3 C 7,8 C 6,7 C 88 % 0 lf 1018,2 hPa 0,0 l/m 0 min 0 min 0 W/m 10,5 km/h (2 Bft) 97,87 %
02.11.2016 17:22 8,2 C 7,8 C 6,7 C 88 % 0 lf 1018,2 hPa 0,0 l/m 0 min 0 min 0 W/m 14,6 km/h (3 Bft) 100,00 %
02.11.2016 17:24 8,2 C 7,8 C 6,7 C 88 % 0 lf 1018,2 hPa 0,0 l/m 0 min 0 min 0 W/m 16,7 km/h (3 Bft) 97,87 %
02.11.2016 17:26 8,2 C 7,8 C 6,7 C 88 % 0 lf 1018,2 hPa 0,0 l/m 0 min 0 min 0 W/m 10,5 km/h (2 Bft) 95,74 %
02.11.2016 17:28 8,2 C 7,8 C 6,1 C 88 % 0 lf 1018,2 hPa 0,0 l/m 0 min 0 min 0 W/m 14,6 km/h (3 Bft) 95,74 %
02.11.2016 17:30 8,2 C 7,8 C 6,1 C 88 % 0 lf 1018,2 hPa 0,0 l/m 0 min 0 min 0 W/m 14,6 km/h (3 Bft) 93,62 %
02.11.2016 17:32 8,2 C 7,8 C 6,1 C 88 % 0 lf 1018,2 hPa 0,0 l/m 0 min 0 min 0 W/m 10,5 km/h (2 Bft) 91,30 %
02.11.2016 17:34 8,1 C 7,8 C 6,1 C 88 % 0 lf 1018,2 hPa 0,0 l/m 0 min 0 min 0 W/m 12,6 km/h (3 Bft) 93,62 %
02.11.2016 17:36 8,1 C 7,8 C 6,1 C 88 % 0 lf 1018,2 hPa 0,0 l/m 0 min 0 min 0 W/m 10,5 km/h (2 Bft) 89,36 %
02.11.2016 17:38 8,1 C 7,8 C 6,7 C 89 % 0 lf 1018,3 hPa 0,0 l/m 0 min 0 min 0 W/m 18,8 km/h (3 Bft) 93,62 %
02.11.2016 17:40 8,1 C 7,8 C 6,7 C 89 % 0 lf 1018,3 hPa 0,0 l/m 0 min 0 min 0 W/m 20,9 km/h (4 Bft) 95,74 %
02.11.2016 17:42 8,1 C 7,8 C 6,7 C 89 % 3 lf 1018,3 hPa 0,0 l/m 0 min 0 min 0 W/m 23,0 km/h (4 Bft) 93,62 %
02.11.2016 17:44 8,1 C 7,8 C 6,7 C 89 % 13 lf 1018,4 hPa 0,0 l/m 0 min 2 min 0 W/m 20,9 km/h (4 Bft) 93,48 %
02.11.2016 17:46 8,1 C 7,8 C 6,1 C 89 % 15 lf 1018,4 hPa 0,0 l/m 0 min 2 min 0 W/m 18,8 km/h (3 Bft) 93,62 %
02.11.2016 17:48 8,1 C 7,8 C 6,1 C 89 % 15 lf 1018,4 hPa 0,0 l/m 0 min 2 min 0 W/m 12,6 km/h (3 Bft) 93,62 %
02.11.2016 17:50 8,1 C 7,8 C 6,1 C 89 % 15 lf 1018,4 hPa 0,0 l/m 0 min 2 min 0 W/m 14,6 km/h (3 Bft) 91,49 %
02.11.2016 17:52 8,1 C 7,2 C 6,1 C 89 % 15 lf 1018,4 hPa 0,0 l/m 0 min 0 min 0 W/m 18,8 km/h (3 Bft) 95,74 %
02.11.2016 17:54 8,1 C 7,2 C 5,6 C 90 % 15 lf 1018,4 hPa 0,0 l/m 0 min 0 min 0 W/m 20,9 km/h (4 Bft) 95,74 %
02.11.2016 17:56 8,0 C 7,2 C 5,6 C 90 % 15 lf 1018,4 hPa 0,0 l/m 0 min 0 min 0 W/m 14,6 km/h (3 Bft) 95,65 %
02.11.2016 17:58 8,0 C 7,2 C 5,6 C 90 % 15 lf 1018,4 hPa 0,0 l/m 0 min 0 min 0 W/m 10,5 km/h (2 Bft) 95,74 %
02.11.2016 18:00 8,0 C 7,2 C 5,6 C 90 % 15 lf 1018,5 hPa 0,0 l/m 0 min 0 min 0 W/m 14,6 km/h (3 Bft) 95,74 %
02.11.2016 18:02 7,9 C 7,2 C 5,6 C 90 % 15 lf 1018,5 hPa 0,0 l/m 0 min 0 min 0 W/m 14,6 km/h (3 Bft) 95,74 %
02.11.2016 18:04 7,9 C 7,2 C 5,6 C 90 % 15 lf 1018,6 hPa 0,0 l/m 0 min 0 min 0 W/m 20,9 km/h (4 Bft) 91,67 %
02.11.2016 18:06 7,9 C 7,2 C 5,6 C 90 % 15 lf 1018,5 hPa 0,0 l/m 0 min 0 min 0 W/m 23,0 km/h (4 Bft) 93,62 %
02.11.2016 18:08 7,9 C 7,2 C 5,6 C 90 % 15 lf 1018,6 hPa 0,0 l/m 0 min 0 min 0 W/m 18,8 km/h (3 Bft) 93,48 %
02.11.2016 18:10 7,9 C 7,2 C 5,6 C 90 % 15 lf 1018,6 hPa 0,0 l/m 0 min 0 min 0 W/m 16,7 km/h (3 Bft) 97,87 %
02.11.2016 18:12 7,8 C 7,2 C 5,6 C 91 % 15 lf 1018,6 hPa 0,0 l/m 0 min 0 min 0 W/m 16,7 km/h (3 Bft) 97,87 %
02.11.2016 18:14 7,8 C 7,2 C 5,0 C 91 % 15 lf 1018,6 hPa 0,0 l/m 0 min 0 min 0 W/m 16,7 km/h (3 Bft) 97,87 %
02.11.2016 18:16 7,8 C 7,2 C 5,6 C 91 % 15 lf 1018,6 hPa 0,0 l/m 0 min 0 min 0 W/m 16,7 km/h (3 Bft) 97,87 %
02.11.2016 18:18 7,8 C 7,2 C 5,0 C 91 % 15 lf 1018,6 hPa 0,0 l/m 0 min 0 min 0 W/m 14,6 km/h (3 Bft) 95,65 %
02.11.2016 18:20 7,7 C 7,2 C 5,0 C 91 % 15 lf 1018,6 hPa 0,0 l/m 0 min 2 min 0 W/m 16,7 km/h (3 Bft) 95,74 %
02.11.2016 18:22 7,7 C 7,2 C 5,0 C 91 % 15 lf 1018,6 hPa 0,0 l/m 0 min 0 min 0 W/m 16,7 km/h (3 Bft) 95,74 %
02.11.2016 18:24 7,7 C 7,2 C 5,0 C 91 % 15 lf 1018,7 hPa 0,0 l/m 0 min 0 min 0 W/m 12,6 km/h (3 Bft) 100,00 %
02.11.2016 18:26 7,7 C 7,2 C 5,0 C 91 % 15 lf 1018,6 hPa 0,2 l/m 0 min 0 min 0 W/m 16,7 km/h (3 Bft) 100,00 %
02.11.2016 18:28 7,6 C 7,2 C 5,0 C 91 % 15 lf 1018,6 hPa 0,0 l/m 0 min 2 min 0 W/m 20,9 km/h (4 Bft) 100,00 %
02.11.2016 18:30 7,6 C 7,2 C 5,0 C 91 % 15 lf 1018,6 hPa 0,0 l/m 0 min 0 min 0 W/m 14,6 km/h (3 Bft) 97,83 %
02.11.2016 18:32 7,6 C 7,2 C 5,0 C 91 % 15 lf 1018,6 hPa 0,0 l/m 0 min 0 min 0 W/m 16,7 km/h (3 Bft) 95,74 %
02.11.2016 18:34 7,5 C 7,2 C 5,0 C 91 % 15 lf 1018,6 hPa 0,0 l/m 0 min 0 min 0 W/m 12,6 km/h (3 Bft) 100,00 %
02.11.2016 18:36 7,5 C 7,2 C 5,0 C 91 % 15 lf 1018,6 hPa 0,0 l/m 0 min 0 min 0 W/m 12,6 km/h (3 Bft) 97,87 %
02.11.2016 18:38 7,5 C 6,7 C 5,0 C 91 % 15 lf 1018,6 hPa 0,0 l/m 0 min 0 min 0 W/m 14,6 km/h (3 Bft) 97,87 %
02.11.2016 18:40 7,4 C 6,7 C 5,0 C 91 % 15 lf 1018,7 hPa 0,0 l/m 0 min 0 min 0 W/m 16,7 km/h (3 Bft) 97,87 %
02.11.2016 18:42 7,4 C 6,7 C 5,0 C 91 % 14 lf 1018,7 hPa 0,0 l/m 0 min 0 min 0 W/m 16,7 km/h (3 Bft) 97,83 %
02.11.2016 18:44 7,4 C 6,7 C 5,0 C 91 % 14 lf 1018,7 hPa 0,0 l/m 0 min 0 min 0 W/m 20,9 km/h (4 Bft) 97,87 %
02.11.2016 18:46 7,4 C 6,7 C 5,0 C 91 % 13 lf 1018,6 hPa 0,0 l/m 0 min 0 min 0 W/m 20,9 km/h (4 Bft) 97,87 %
02.11.2016 18:48 7,4 C 7,2 C 5,0 C 91 % 13 lf 1018,6 hPa 0,0 l/m 0 min 0 min 0 W/m 18,8 km/h (3 Bft) 93,62 %
02.11.2016 18:50 7,4 C 7,2 C 5,0 C 92 % 12 lf 1018,6 hPa 0,0 l/m 0 min 0 min 0 W/m 16,7 km/h (3 Bft) 97,87 %
02.11.2016 18:52 7,4 C 7,2 C 5,6 C 92 % 12 lf 1018,7 hPa 0,0 l/m 0 min 0 min 0 W/m 14,6 km/h (3 Bft) 100,00 %
02.11.2016 18:54 7,4 C 7,2 C 5,6 C 92 % 10 lf 1018,7 hPa 0,0 l/m 0 min 0 min 0 W/m 14,6 km/h (3 Bft) 100,00 %
02.11.2016 18:56 7,4 C 7,2 C 5,6 C 92 % 15 lf 1018,7 hPa 0,0 l/m 0 min 2 min 0 W/m 14,6 km/h (3 Bft) 100,00 %
02.11.2016 18:58 7,4 C 7,2 C 5,6 C 92 % 15 lf 1018,7 hPa 0,0 l/m 0 min 2 min 0 W/m 12,6 km/h (3 Bft) 95,74 %
02.11.2016 19:00 7,4 C 7,2 C 5,6 C 92 % 15 lf 1018,8 hPa 0,0 l/m 0 min 2 min 0 W/m 10,5 km/h (2 Bft) 95,74 %
02.11.2016 19:02 7,4 C 7,2 C 5,6 C 92 % 15 lf 1018,8 hPa 0,0 l/m 0 min 2 min 0 W/m 12,6 km/h (3 Bft) 95,74 %
02.11.2016 19:04 7,4 C 7,2 C 5,0 C 92 % 15 lf 1018,8 hPa 0,0 l/m 0 min 2 min 0 W/m 16,7 km/h (3 Bft) 97,87 %
02.11.2016 19:06 7,4 C 7,2 C 5,0 C 92 % 15 lf 1018,8 hPa 0,0 l/m 0 min 0 min 0 W/m 12,6 km/h (3 Bft) 91,30 %
02.11.2016 19:08 7,4 C 6,7 C 5,0 C 92 % 15 lf 1018,8 hPa 0,0 l/m 0 min 0 min 0 W/m 14,6 km/h (3 Bft) 93,62 %
02.11.2016 19:10 7,4 C 6,7 C 5,0 C 93 % 15 lf 1018,8 hPa 0,0 l/m 0 min 0 min 0 W/m 16,7 km/h (3 Bft) 93,62 %
02.11.2016 19:12 7,3 C 6,7 C 5,0 C 93 % 15 lf 1018,7 hPa 0,0 l/m 0 min 0 min 0 W/m 12,6 km/h (3 Bft) 95,74 %
02.11.2016 19:14 7,3 C 6,7 C 5,0 C 93 % 15 lf 1018,8 hPa 0,0 l/m 0 min 0 min 0 W/m 14,6 km/h (3 Bft) 93,62 %
02.11.2016 19:16 7,3 C 6,7 C 5,0 C 93 % 15 lf 1018,8 hPa 0,0 l/m 0 min 0 min 0 W/m 18,8 km/h (3 Bft) 95,74 %
02.11.2016 19:18 7,3 C 6,7 C 5,0 C 93 % 15 lf 1018,8 hPa 0,0 l/m 0 min 0 min 0 W/m 10,5 km/h (2 Bft) 97,83 %
02.11.2016 19:20 7,3 C 6,7 C 5,0 C 93 % 15 lf 1018,8 hPa 0,0 l/m 0 min 0 min 0 W/m 8,4 km/h (2 Bft) 95,74 %
02.11.2016 19:22 7,3 C 6,7 C 5,0 C 93 % 15 lf 1018,7 hPa 0,0 l/m 0 min 0 min 0 W/m 10,5 km/h (2 Bft) 93,62 %
02.11.2016 19:24 7,2 C 6,7 C 5,0 C 93 % 15 lf 1018,7 hPa 0,0 l/m 0 min 0 min 0 W/m 12,6 km/h (3 Bft) 93,62 %
02.11.2016 19:26 7,2 C 6,7 C 5,0 C 93 % 15 lf 1018,8 hPa 0,0 l/m 0 min 0 min 0 W/m 14,6 km/h (3 Bft) 95,74 %
02.11.2016 19:28 7,2 C 6,7 C 5,0 C 93 % 15 lf 1018,7 hPa 0,0 l/m 0 min 0 min 0 W/m 16,7 km/h (3 Bft) 95,74 %
02.11.2016 19:30 7,2 C 6,7 C 5,0 C 93 % 15 lf 1018,8 hPa 0,0 l/m 0 min 0 min 0 W/m 18,8 km/h (3 Bft) 97,83 %
02.11.2016 19:32 7,2 C 6,7 C 5,0 C 93 % 15 lf 1018,8 hPa 0,0 l/m 0 min 0 min 0 W/m 12,6 km/h (3 Bft) 95,74 %
02.11.2016 19:34 7,2 C 6,7 C 5,0 C 93 % 15 lf 1018,8 hPa 0,0 l/m 0 min 0 min 0 W/m 14,6 km/h (3 Bft) 95,74 %
02.11.2016 19:36 7,1 C 6,7 C 5,0 C 93 % 15 lf 1018,8 hPa 0,0 l/m 0 min 0 min 0 W/m 12,6 km/h (3 Bft) 97,87 %
02.11.2016 19:38 7,1 C 6,7 C 5,0 C 93 % 15 lf 1018,8 hPa 0,0 l/m 0 min 0 min 0 W/m 14,6 km/h (3 Bft) 95,74 %
02.11.2016 19:40 7,1 C 6,7 C 5,0 C 93 % 15 lf 1018,8 hPa 0,0 l/m 0 min 0 min 0 W/m 18,8 km/h (3 Bft) 93,62 %
02.11.2016 19:42 7,1 C 6,7 C 5,0 C 93 % 15 lf 1018,8 hPa 0,0 l/m 0 min 0 min 0 W/m 16,7 km/h (3 Bft) 97,83 %
02.11.2016 19:44 7,1 C 6,7 C 4,4 C 93 % 15 lf 1018,8 hPa 0,0 l/m 0 min 0 min 0 W/m 12,6 km/h (3 Bft) 95,74 %
02.11.2016 19:46 7,0 C 6,1 C 4,4 C 93 % 15 lf 1018,8 hPa 0,0 l/m 0 min 0 min 0 W/m 10,5 km/h (2 Bft) 95,74 %
02.11.2016 19:48 7,0 C 6,7 C 4,4 C 93 % 15 lf 1018,8 hPa 0,0 l/m 0 min 0 min 0 W/m 12,6 km/h (3 Bft) 95,74 %
02.11.2016 19:50 7,0 C 6,1 C 4,4 C 93 % 15 lf 1018,8 hPa 0,0 l/m 0 min 0 min 0 W/m 12,6 km/h (3 Bft) 97,87 %
02.11.2016 19:52 6,9 C 6,1 C 4,4 C 93 % 15 lf 1018,8 hPa 0,0 l/m 0 min 0 min 0 W/m 10,5 km/h (2 Bft) 97,83 %
02.11.2016 19:54 6,9 C 6,1 C 4,4 C 93 % 15 lf 1018,8 hPa 0,0 l/m 0 min 0 min 0 W/m 12,6 km/h (3 Bft) 97,87 %
02.11.2016 19:56 6,9 C 6,1 C 4,4 C 93 % 15 lf 1018,9 hPa 0,0 l/m 0 min 0 min 0 W/m 14,6 km/h (3 Bft) 91,49 %
02.11.2016 19:58 6,9 C 6,1 C 4,4 C 93 % 15 lf 1018,8 hPa 0,0 l/m 0 min 0 min 0 W/m 10,5 km/h (2 Bft) 97,87 %
02.11.2016 20:00 6,9 C 6,1 C 4,4 C 93 % 15 lf 1018,9 hPa 0,0 l/m 0 min 0 min 0 W/m 16,7 km/h (3 Bft) 97,87 %
02.11.2016 20:02 6,8 C 6,1 C 4,4 C 93 % 15 lf 1018,9 hPa 0,0 l/m 0 min 0 min 0 W/m 10,5 km/h (2 Bft) 89,36 %
02.11.2016 20:04 6,8 C 6,1 C 4,4 C 93 % 15 lf 1018,9 hPa 0,0 l/m 0 min 0 min 0 W/m 16,7 km/h (3 Bft) 91,30 %
02.11.2016 20:06 6,8 C 6,1 C 4,4 C 93 % 15 lf 1018,8 hPa 0,0 l/m 0 min 0 min 0 W/m 14,6 km/h (3 Bft) 95,74 %
02.11.2016 20:08 6,8 C 6,1 C 4,4 C 93 % 15 lf 1018,9 hPa 0,0 l/m 0 min 0 min 0 W/m 12,6 km/h (3 Bft) 95,74 %
02.11.2016 20:10 6,8 C 6,1 C 4,4 C 94 % 15 lf 1018,8 hPa 0,0 l/m 0 min 0 min 0 W/m 12,6 km/h (3 Bft) 97,87 %
02.11.2016 20:12 6,7 C 6,1 C 4,4 C 93 % 15 lf 1018,8 hPa 0,0 l/m 0 min 0 min 0 W/m 14,6 km/h (3 Bft) 97,87 %
02.11.2016 20:14 6,7 C 6,1 C 4,4 C 93 % 15 lf 1018,9 hPa 0,0 l/m 0 min 0 min 0 W/m 10,5 km/h (2 Bft) 93,62 %
02.11.2016 20:16 6,7 C 6,1 C 4,4 C 93 % 15 lf 1018,9 hPa 0,0 l/m 0 min 0 min 0 W/m 14,6 km/h (3 Bft) 97,83 %
02.11.2016 20:18 6,7 C 6,1 C 4,4 C 94 % 15 lf 1018,9 hPa 0,0 l/m 0 min 0 min 0 W/m 10,5 km/h (2 Bft) 97,87 %
02.11.2016 20:20 6,7 C 6,1 C 4,4 C 94 % 15 lf 1018,9 hPa 0,0 l/m 0 min 0 min 0 W/m 12,6 km/h (3 Bft) 91,49 %
02.11.2016 20:22 6,7 C 6,1 C 4,4 C 94 % 15 lf 1018,9 hPa 0,0 l/m 0 min 0 min 0 W/m 10,5 km/h (2 Bft) 97,87 %
02.11.2016 20:24 6,6 C 6,1 C 4,4 C 94 % 15 lf 1018,9 hPa 0,0 l/m 0 min 0 min 0 W/m 10,5 km/h (2 Bft) 97,87 %
02.11.2016 20:26 6,6 C 6,1 C 4,4 C 94 % 15 lf 1018,9 hPa 0,0 l/m 0 min 0 min 0 W/m 10,5 km/h (2 Bft) 97,87 %
02.11.2016 20:28 6,6 C 6,1 C 4,4 C 94 % 15 lf 1018,9 hPa 0,0 l/m 0 min 0 min 0 W/m 16,7 km/h (3 Bft) 95,65 %
02.11.2016 20:30 6,6 C 6,1 C 4,4 C 94 % 15 lf 1018,9 hPa 0,0 l/m 0 min 0 min 0 W/m 10,5 km/h (2 Bft) 95,74 %
02.11.2016 20:32 6,5 C 6,1 C 4,4 C 94 % 15 lf 1018,9 hPa 0,0 l/m 0 min 0 min 0 W/m 14,6 km/h (3 Bft) 97,87 %
02.11.2016 20:34 6,5 C 6,1 C 4,4 C 94 % 15 lf 1019,0 hPa 0,0 l/m 0 min 0 min 0 W/m 16,7 km/h (3 Bft) 95,74 %
02.11.2016 20:36 6,5 C 6,1 C 4,4 C 94 % 15 lf 1018,9 hPa 0,0 l/m 0 min 0 min 0 W/m 12,6 km/h (3 Bft) 91,49 %
02.11.2016 20:38 6,4 C 6,1 C 4,4 C 94 % 15 lf 1019,0 hPa 0,0 l/m 0 min 0 min 0 W/m 10,5 km/h (2 Bft) 91,49 %
02.11.2016 20:40 6,4 C 6,1 C 4,4 C 94 % 15 lf 1019,0 hPa 0,0 l/m 0 min 0 min 0 W/m 16,7 km/h (3 Bft) 93,48 %
02.11.2016 20:42 6,4 C 6,1 C 4,4 C 94 % 15 lf 1019,0 hPa 0,0 l/m 0 min 0 min 0 W/m 14,6 km/h (3 Bft) 93,62 %
02.11.2016 20:44 6,4 C 6,1 C 4,4 C 94 % 15 lf 1019,0 hPa 0,0 l/m 0 min 0 min 0 W/m 12,6 km/h (3 Bft) 91,49 %
02.11.2016 20:46 6,4 C 6,1 C 4,4 C 94 % 15 lf 1019,0 hPa 0,0 l/m 0 min 0 min 0 W/m 14,6 km/h (3 Bft) 95,74 %
02.11.2016 20:48 6,4 C 6,1 C 4,4 C 94 % 15 lf 1019,1 hPa 0,0 l/m 0 min 0 min 0 W/m 16,7 km/h (3 Bft) 95,74 %
02.11.2016 20:50 6,4 C 6,1 C 4,4 C 94 % 15 lf 1019,1 hPa 0,0 l/m 0 min 0 min 0 W/m 14,6 km/h (3 Bft) 93,48 %
02.11.2016 20:52 6,4 C 6,1 C 4,4 C 94 % 15 lf 1019,1 hPa 0,0 l/m 0 min 0 min 0 W/m 18,8 km/h (3 Bft) 95,74 %
02.11.2016 20:54 6,4 C 6,1 C 4,4 C 94 % 15 lf 1019,1 hPa 0,0 l/m 0 min 0 min 0 W/m 18,8 km/h (3 Bft) 87,23 %
02.11.2016 20:56 6,4 C 6,1 C 4,4 C 94 % 15 lf 1019,1 hPa 0,0 l/m 0 min 0 min 0 W/m 20,9 km/h (4 Bft) 95,74 %
02.11.2016 20:58 6,4 C 6,1 C 4,4 C 94 % 15 lf 1019,2 hPa 0,0 l/m 0 min 0 min 0 W/m 12,6 km/h (3 Bft) 95,74 %
02.11.2016 21:00 6,4 C 6,1 C 4,4 C 95 % 15 lf 1019,2 hPa 0,0 l/m 0 min 0 min 0 W/m 14,6 km/h (3 Bft) 93,62 %
02.11.2016 21:02 6,3 C 6,1 C 4,4 C 94 % 15 lf 1019,2 hPa 0,0 l/m 0 min 0 min 0 W/m 16,7 km/h (3 Bft) 91,30 %
02.11.2016 21:04 6,3 C 6,1 C 4,4 C 94 % 15 lf 1019,2 hPa 0,0 l/m 0 min 0 min 0 W/m 16,7 km/h (3 Bft) 95,74 %
02.11.2016 21:06 6,3 C 6,1 C 4,4 C 94 % 15 lf 1019,2 hPa 0,0 l/m 0 min 0 min 0 W/m 12,6 km/h (3 Bft) 95,74 %
02.11.2016 21:08 6,3 C 6,1 C 4,4 C 94 % 15 lf 1019,3 hPa 0,0 l/m 0 min 0 min 0 W/m 18,8 km/h (3 Bft) 93,62 %
02.11.2016 21:10 6,3 C 6,1 C 4,4 C 95 % 15 lf 1019,2 hPa 0,0 l/m 0 min 0 min 0 W/m 14,6 km/h (3 Bft) 95,74 %
02.11.2016 21:12 6,3 C 6,1 C 4,4 C 95 % 15 lf 1019,3 hPa 0,0 l/m 0 min 0 min 0 W/m 10,5 km/h (2 Bft) 95,74 %
02.11.2016 21:14 6,3 C 5,6 C 3,9 C 95 % 15 lf 1019,3 hPa 0,0 l/m 0 min 0 min 0 W/m 10,5 km/h (2 Bft) 95,65 %
02.11.2016 21:16 6,2 C 5,6 C 3,9 C 95 % 15 lf 1019,3 hPa 0,0 l/m 0 min 0 min 0 W/m 16,7 km/h (3 Bft) 93,62 %
02.11.2016 21:18 6,2 C 5,6 C 3,9 C 95 % 15 lf 1019,3 hPa 0,0 l/m 0 min 0 min 0 W/m 12,6 km/h (3 Bft) 95,74 %
02.11.2016 21:20 6,2 C 5,6 C 3,9 C 95 % 15 lf 1019,3 hPa 0,0 l/m 0 min 2 min 0 W/m 14,6 km/h (3 Bft) 97,87 %
02.11.2016 21:22 6,2 C 5,6 C 3,9 C 95 % 15 lf 1019,3 hPa 0,0 l/m 0 min 0 min 0 W/m 14,6 km/h (3 Bft) 97,87 %
02.11.2016 21:24 6,2 C 5,6 C 3,9 C 95 % 15 lf 1019,3 hPa 0,0 l/m 0 min 0 min 0 W/m 14,6 km/h (3 Bft) 97,87 %
02.11.2016 21:26 6,2 C 5,6 C 3,9 C 95 % 15 lf 1019,3 hPa 0,0 l/m 0 min 0 min 0 W/m 12,6 km/h (3 Bft) 95,65 %
02.11.2016 21:28 6,1 C 5,6 C 3,9 C 95 % 15 lf 1019,3 hPa 0,0 l/m 0 min 0 min 0 W/m 10,5 km/h (2 Bft) 100,00 %
02.11.2016 21:30 6,1 C 5,6 C 3,9 C 95 % 15 lf 1019,3 hPa 0,0 l/m 0 min 0 min 0 W/m 10,5 km/h (2 Bft) 97,87 %
02.11.2016 21:32 6,1 C 5,6 C 3,9 C 95 % 15 lf 1019,3 hPa 0,0 l/m 0 min 0 min 0 W/m 10,5 km/h (2 Bft) 97,87 %
02.11.2016 21:34 6,1 C 5,6 C 3,9 C 95 % 15 lf 1019,3 hPa 0,0 l/m 0 min 0 min 0 W/m 12,6 km/h (3 Bft) 100,00 %
02.11.2016 21:36 6,1 C 5,6 C 3,9 C 95 % 15 lf 1019,3 hPa 0,0 l/m 0 min 0 min 0 W/m 14,6 km/h (3 Bft) 97,87 %
02.11.2016 21:38 6,1 C 5,6 C 3,9 C 95 % 15 lf 1019,3 hPa 0,0 l/m 0 min 0 min 0 W/m 12,6 km/h (3 Bft) 95,65 %
02.11.2016 21:40 6,1 C 5,6 C 3,9 C 95 % 15 lf 1019,4 hPa 0,0 l/m 0 min 0 min 0 W/m 16,7 km/h (3 Bft) 100,00 %
02.11.2016 21:42 6,1 C 5,6 C 3,9 C 95 % 15 lf 1019,4 hPa 0,0 l/m 0 min 0 min 0 W/m 12,6 km/h (3 Bft) 97,87 %
02.11.2016 21:44 6,0 C 5,6 C 3,9 C 95 % 15 lf 1019,4 hPa 0,0 l/m 0 min 0 min 0 W/m 10,5 km/h (2 Bft) 95,74 %
02.11.2016 21:46 6,0 C 5,6 C 3,9 C 95 % 15 lf 1019,4 hPa 0,0 l/m 0 min 0 min 0 W/m 10,5 km/h (2 Bft) 100,00 %
02.11.2016 21:48 6,0 C 5,6 C 3,9 C 95 % 15 lf 1019,3 hPa 0,0 l/m 0 min 0 min 0 W/m 6,3 km/h (2 Bft) 100,00 %
02.11.2016 21:50 6,0 C 5,6 C 3,3 C 95 % 15 lf 1019,4 hPa 0,0 l/m 0 min 0 min 0 W/m 14,6 km/h (3 Bft) 100,00 %
02.11.2016 21:52 6,0 C 5,6 C 3,9 C 95 % 15 lf 1019,4 hPa 0,0 l/m 0 min 0 min 0 W/m 12,6 km/h (3 Bft) 97,87 %
02.11.2016 21:54 5,9 C 5,6 C 3,9 C 95 % 15 lf 1019,4 hPa 0,0 l/m 0 min 0 min 0 W/m 10,5 km/h (2 Bft) 100,00 %
02.11.2016 21:56 5,9 C 5,6 C 3,9 C 95 % 15 lf 1019,4 hPa 0,0 l/m 0 min 0 min 0 W/m 12,6 km/h (3 Bft) 100,00 %
02.11.2016 21:58 5,9 C 5,6 C 3,9 C 95 % 15 lf 1019,4 hPa 0,0 l/m 0 min 0 min 0 W/m 14,6 km/h (3 Bft) 100,00 %
02.11.2016 22:00 5,9 C 5,6 C 3,9 C 95 % 15 lf 1019,5 hPa 0,0 l/m 0 min 0 min 0 W/m 10,5 km/h (2 Bft) 100,00 %
02.11.2016 22:02 5,9 C 5,6 C 3,9 C 95 % 15 lf 1019,5 hPa 0,0 l/m 0 min 0 min 0 W/m 8,4 km/h (2 Bft) 97,83 %
02.11.2016 22:04 5,9 C 5,6 C 3,9 C 95 % 15 lf 1019,5 hPa 0,0 l/m 0 min 0 min 0 W/m 10,5 km/h (2 Bft) 100,00 %
02.11.2016 22:06 5,9 C 5,6 C 3,9 C 95 % 15 lf 1019,5 hPa 0,0 l/m 0 min 0 min 0 W/m 10,5 km/h (2 Bft) 97,87 %
02.11.2016 22:08 5,9 C 5,0 C 3,3 C 95 % 15 lf 1019,5 hPa 0,0 l/m 0 min 0 min 0 W/m 6,3 km/h (2 Bft) 95,74 %
02.11.2016 22:10 5,8 C 5,0 C 3,3 C 95 % 15 lf 1019,5 hPa 0,0 l/m 0 min 0 min 0 W/m 10,5 km/h (2 Bft) 97,87 %
02.11.2016 22:12 5,8 C 5,0 C 3,3 C 95 % 15 lf 1019,5 hPa 0,0 l/m 0 min 0 min 0 W/m 10,5 km/h (2 Bft) 97,83 %
02.11.2016 22:14 5,8 C 5,0 C 3,3 C 95 % 15 lf 1019,5 hPa 0,0 l/m 0 min 0 min 0 W/m 8,4 km/h (2 Bft) 97,87 %
02.11.2016 22:16 5,8 C 5,0 C 3,3 C 95 % 15 lf 1019,5 hPa 0,0 l/m 0 min 0 min 0 W/m 6,3 km/h (2 Bft) 100,00 %
02.11.2016 22:18 5,8 C 5,0 C 3,3 C 95 % 15 lf 1019,5 hPa 0,0 l/m 0 min 0 min 0 W/m 14,6 km/h (3 Bft) 91,49 %
02.11.2016 22:20 5,8 C 5,0 C 3,3 C 95 % 15 lf 1019,5 hPa 0,0 l/m 0 min 0 min 0 W/m 8,4 km/h (2 Bft) 100,00 %
02.11.2016 22:22 5,7 C 5,0 C 3,3 C 95 % 15 lf 1019,6 hPa 0,0 l/m 0 min 0 min 0 W/m 10,5 km/h (2 Bft) 95,74 %
02.11.2016 22:24 5,7 C 5,0 C 3,3 C 95 % 15 lf 1019,5 hPa 0,0 l/m 0 min 0 min 0 W/m 8,4 km/h (2 Bft) 97,83 %
02.11.2016 22:26 5,7 C 5,0 C 3,3 C 95 % 15 lf 1019,6 hPa 0,0 l/m 0 min 0 min 0 W/m 8,4 km/h (2 Bft) 95,74 %
02.11.2016 22:28 5,7 C 5,0 C 3,3 C 95 % 15 lf 1019,5 hPa 0,0 l/m 0 min 0 min 0 W/m 8,4 km/h (2 Bft) 97,87 %
02.11.2016 22:30 5,7 C 5,0 C 3,3 C 95 % 15 lf 1019,5 hPa 0,0 l/m 0 min 0 min 0 W/m 8,4 km/h (2 Bft) 97,87 %
02.11.2016 22:32 5,7 C 5,0 C 3,3 C 95 % 15 lf 1019,5 hPa 0,0 l/m 0 min 0 min 0 W/m 4,2 km/h (1 Bft) 97,87 %
02.11.2016 22:34 5,6 C 5,0 C 3,3 C 95 % 15 lf 1019,5 hPa 0,0 l/m 0 min 0 min 0 W/m 6,3 km/h (2 Bft) 93,62 %
02.11.2016 22:36 5,6 C 5,0 C 3,3 C 95 % 15 lf 1019,6 hPa 0,0 l/m 0 min 0 min 0 W/m 8,4 km/h (2 Bft) 97,83 %
02.11.2016 22:38 5,6 C 5,0 C 3,3 C 96 % 15 lf 1019,5 hPa 0,0 l/m 0 min 0 min 0 W/m 6,3 km/h (2 Bft) 100,00 %
02.11.2016 22:40 5,6 C 5,0 C 3,3 C 96 % 15 lf 1019,5 hPa 0,0 l/m 0 min 0 min 0 W/m 12,6 km/h (3 Bft) 95,74 %
02.11.2016 22:42 5,6 C 5,0 C 2,8 C 96 % 15 lf 1019,5 hPa 0,0 l/m 0 min 0 min 0 W/m 8,4 km/h (2 Bft) 91,49 %
02.11.2016 22:44 5,5 C 5,0 C 3,3 C 96 % 15 lf 1019,5 hPa 0,0 l/m 0 min 0 min 0 W/m 10,5 km/h (2 Bft) 93,62 %
02.11.2016 22:46 5,5 C 5,0 C 3,3 C 96 % 15 lf 1019,5 hPa 0,0 l/m 0 min 0 min 0 W/m 10,5 km/h (2 Bft) 95,74 %
02.11.2016 22:48 5,5 C 5,0 C 3,3 C 96 % 15 lf 1019,5 hPa 0,0 l/m 0 min 0 min 0 W/m 12,6 km/h (3 Bft) 95,65 %
02.11.2016 22:50 5,5 C 5,0 C 3,3 C 96 % 15 lf 1019,6 hPa 0,0 l/m 0 min 0 min 0 W/m 10,5 km/h (2 Bft) 93,62 %
02.11.2016 22:52 5,5 C 5,0 C 3,3 C 96 % 15 lf 1019,6 hPa 0,0 l/m 0 min 0 min 0 W/m 8,4 km/h (2 Bft) 97,87 %
02.11.2016 22:54 5,4 C 5,0 C 3,3 C 95 % 15 lf 1019,7 hPa 0,0 l/m 0 min 2 min 0 W/m 10,5 km/h (2 Bft) 91,49 %
02.11.2016 22:56 5,4 C 5,0 C 3,3 C 95 % 15 lf 1019,6 hPa 0,0 l/m 0 min 0 min 0 W/m 10,5 km/h (2 Bft) 95,74 %
02.11.2016 22:58 5,4 C 5,0 C 3,3 C 95 % 15 lf 1019,7 hPa 0,0 l/m 0 min 0 min 0 W/m 8,4 km/h (2 Bft) 95,74 %
02.11.2016 23:00 5,4 C 5,0 C 3,3 C 96 % 15 lf 1019,6 hPa 0,0 l/m 0 min 0 min 0 W/m 10,5 km/h (2 Bft) 93,48 %
02.11.2016 23:02 5,4 C 5,0 C 3,3 C 96 % 15 lf 1019,7 hPa 0,0 l/m 0 min 0 min 0 W/m 10,5 km/h (2 Bft) 93,62 %
02.11.2016 23:04 5,4 C 5,0 C 3,3 C 96 % 15 lf 1019,7 hPa 0,0 l/m 0 min 0 min 0 W/m 10,5 km/h (2 Bft) 93,62 %
02.11.2016 23:06 5,4 C 5,0 C 3,3 C 96 % 15 lf 1019,6 hPa 0,0 l/m 0 min 0 min 0 W/m 12,6 km/h (3 Bft) 93,62 %
02.11.2016 23:08 5,4 C 5,0 C 3,3 C 96 % 15 lf 1019,7 hPa 0,0 l/m 0 min 0 min 0 W/m 12,6 km/h (3 Bft) 95,74 %
02.11.2016 23:10 5,3 C 4,4 C 3,3 C 96 % 15 lf 1019,7 hPa 0,0 l/m 0 min 0 min 2 W/m 8,4 km/h (2 Bft) 95,74 %
02.11.2016 23:12 5,3 C 4,4 C 3,3 C 96 % 15 lf 1019,7 hPa 0,0 l/m 0 min 0 min 0 W/m 6,3 km/h (2 Bft) 95,65 %
02.11.2016 23:14 5,3 C 4,4 C 3,3 C 96 % 15 lf 1019,7 hPa 0,0 l/m 0 min 0 min 0 W/m 10,5 km/h (2 Bft) 97,87 %
02.11.2016 23:16 5,3 C 5,0 C 3,3 C 96 % 15 lf 1019,7 hPa 0,0 l/m 0 min 0 min 0 W/m 8,4 km/h (2 Bft) 100,00 %
02.11.2016 23:18 5,3 C 5,0 C 3,3 C 96 % 15 lf 1019,7 hPa 0,0 l/m 0 min 0 min 0 W/m 8,4 km/h (2 Bft) 95,74 %
02.11.2016 23:20 5,3 C 5,0 C 3,3 C 96 % 15 lf 1019,7 hPa 0,0 l/m 0 min 0 min 0 W/m 12,6 km/h (3 Bft) 93,62 %
02.11.2016 23:22 5,3 C 5,0 C 3,3 C 96 % 15 lf 1019,7 hPa 0,0 l/m 0 min 0 min 0 W/m 8,4 km/h (2 Bft) 97,83 %
02.11.2016 23:24 5,3 C 4,4 C 3,3 C 96 % 15 lf 1019,7 hPa 0,0 l/m 0 min 0 min 0 W/m 10,5 km/h (2 Bft) 97,87 %
02.11.2016 23:26 5,3 C 4,4 C 3,3 C 96 % 15 lf 1019,7 hPa 0,0 l/m 0 min 0 min 0 W/m 8,4 km/h (2 Bft) 97,87 %
02.11.2016 23:28 5,3 C 5,0 C 3,3 C 96 % 15 lf 1019,7 hPa 0,0 l/m 0 min 0 min 0 W/m 12,6 km/h (3 Bft) 93,62 %
02.11.2016 23:30 5,3 C 5,0 C 3,3 C 96 % 15 lf 1019,7 hPa 0,0 l/m 0 min 0 min 0 W/m 14,6 km/h (3 Bft) 97,87 %
02.11.2016 23:32 5,3 C 5,0 C 3,9 C 96 % 15 lf 1019,7 hPa 0,0 l/m 0 min 0 min 0 W/m 8,4 km/h (2 Bft) 97,87 %
02.11.2016 23:34 5,3 C 5,0 C 3,9 C 96 % 15 lf 1019,8 hPa 0,0 l/m 0 min 0 min 0 W/m 8,4 km/h (2 Bft) 97,83 %
02.11.2016 23:36 5,3 C 5,0 C 3,9 C 96 % 15 lf 1019,8 hPa 0,0 l/m 0 min 0 min 0 W/m 12,6 km/h (3 Bft) 100,00 %
02.11.2016 23:38 5,3 C 5,6 C 3,9 C 96 % 15 lf 1019,9 hPa 0,0 l/m 0 min 0 min 0 W/m 12,6 km/h (3 Bft) 95,74 %
02.11.2016 23:40 5,3 C 5,6 C 4,4 C 96 % 15 lf 1019,8 hPa 0,0 l/m 0 min 0 min 0 W/m 8,4 km/h (2 Bft) 95,74 %
02.11.2016 23:42 5,4 C 5,6 C 4,4 C 96 % 15 lf 1019,9 hPa 0,0 l/m 0 min 0 min 0 W/m 10,5 km/h (2 Bft) 95,74 %
02.11.2016 23:44 5,4 C 5,6 C 4,4 C 96 % 15 lf 1019,8 hPa 0,0 l/m 0 min 0 min 0 W/m 12,6 km/h (3 Bft) 91,49 %
02.11.2016 23:46 5,4 C 5,6 C 4,4 C 96 % 15 lf 1019,8 hPa 0,0 l/m 0 min 0 min 0 W/m 10,5 km/h (2 Bft) 95,65 %
02.11.2016 23:48 5,4 C 5,6 C 4,4 C 96 % 15 lf 1019,8 hPa 0,0 l/m 0 min 0 min 0 W/m 8,4 km/h (2 Bft) 93,62 %
02.11.2016 23:50 5,5 C 5,6 C 4,4 C 96 % 15 lf 1019,8 hPa 0,0 l/m 0 min 0 min 0 W/m 8,4 km/h (2 Bft) 95,74 %
02.11.2016 23:52 5,5 C 5,6 C 4,4 C 96 % 15 lf 1019,8 hPa 0,0 l/m 0 min 0 min 0 W/m 8,4 km/h (2 Bft) 93,62 %
02.11.2016 23:54 5,6 C 5,6 C 4,4 C 96 % 15 lf 1019,9 hPa 0,0 l/m 0 min 0 min 0 W/m 8,4 km/h (2 Bft) 91,49 %
02.11.2016 23:56 5,6 C 5,6 C 4,4 C 96 % 15 lf 1019,9 hPa 0,0 l/m 0 min 0 min 0 W/m 10,5 km/h (2 Bft) 95,74 %
02.11.2016 23:58 5,6 C 5,6 C 4,4 C 96 % 15 lf 1019,9 hPa 0,0 l/m 0 min 0 min 0 W/m 12,6 km/h (3 Bft) 95,65 %
_ Min-Zeit 23:08 23:10 22:42 15:18 10:06 07:28 - - - - 00:12 03:08
Minimum _ 5,3 C 4,4 C 2,8 C 75 % 0 lf 1017,6 hPa - - - - 4,2 km/h (1 Bft) 86,96 %
_ Max-Zeit 13:48 13:40 13:48 05:34 00:00 23:38 07:20 08:16 04:58 14:32 12:00 01:46
Maximum _ 11,3 C 19,4 C 11,1 C 97 % 15 lf 1019,9 hPa 0,2 l/m 2 min 2 min 563 W/m 29,3 km/h
W-SW (5 Bft)
100,00 %
Durchschnitt _ 7,7 C 8,1 C 6,0 C 92 % 10 lf 1018,4 hPa #0,4 l/m #5:30 h #1:40 h 223 W/m 13,1 km/h (3 Bft) 96,28 %
© 2016 W. Hausmann